<?xml version="1.0" encoding="UTF-8" standalone="no" ?>
<gpx xmlns="http://www.topografix.com/GPX/1/1" xmlns:xsi="http://www.w3.org/2001/XMLSchema-instance" xsi:schemaLocation="http://www.topografix.com/GPX/1/1 http://www.topografix.com/GPX/1/1/gpx.xsd" version="1.1" creator="VisuGPX - https://www.visugpx.com">
  <metadata>
    <name>Pornichet_PlageBocageOcean_16-22km</name>
    <desc><![CDATA[gnerando idor:7072345_7959838_13291056]]></desc>
  </metadata>
  <trk>
    <name><![CDATA[Pornichet_PlageBocage_19.3km-7959838]]></name>
    <extensions>
      <line xmlns="http://www.topografix.com/GPX/gpx_style/0/2">
        <color>0000FF</color>
        <width>4</width>
      </line>
    </extensions>
    <trkseg>
      <trkpt lat="47.26697" lon="-2.33086">
        <ele>5</ele>
        <time>2023-11-11T06:39:15Z</time>
      </trkpt>
      <trkpt lat="47.2684" lon="-2.32858">
        <ele>8</ele>
        <time>2023-11-11T06:43:56Z</time>
      </trkpt>
      <trkpt lat="47.26773" lon="-2.32378">
        <ele>17</ele>
        <time>2023-11-11T06:51:20Z</time>
      </trkpt>
      <trkpt lat="47.26921" lon="-2.32352">
        <ele>9</ele>
        <time>2023-11-11T06:54:39Z</time>
      </trkpt>
      <trkpt lat="47.27011" lon="-2.32519">
        <ele>5</ele>
        <time>2023-11-11T06:57:52Z</time>
      </trkpt>
      <trkpt lat="47.27035" lon="-2.32451">
        <ele>3</ele>
        <time>2023-11-11T06:59:01Z</time>
      </trkpt>
      <trkpt lat="47.27026" lon="-2.3221">
        <ele>4</ele>
        <time>2023-11-11T07:02:40Z</time>
      </trkpt>
      <trkpt lat="47.26985" lon="-2.32146">
        <ele>6</ele>
        <time>2023-11-11T07:04:00Z</time>
      </trkpt>
      <trkpt lat="47.27017" lon="-2.32034">
        <ele>8</ele>
        <time>2023-11-11T07:05:50Z</time>
      </trkpt>
      <trkpt lat="47.27005" lon="-2.3197">
        <ele>11</ele>
        <time>2023-11-11T07:06:50Z</time>
      </trkpt>
      <trkpt lat="47.27093" lon="-2.31961">
        <ele>8</ele>
        <time>2023-11-11T07:08:47Z</time>
      </trkpt>
      <trkpt lat="47.27166" lon="-2.31991">
        <ele>7</ele>
        <time>2023-11-11T07:10:29Z</time>
      </trkpt>
      <trkpt lat="47.27221" lon="-2.31923">
        <ele>9</ele>
        <time>2023-11-11T07:12:04Z</time>
      </trkpt>
      <trkpt lat="47.27413" lon="-2.32022">
        <ele>6</ele>
        <time>2023-11-11T07:16:36Z</time>
      </trkpt>
      <trkpt lat="47.27495" lon="-2.31833">
        <ele>6</ele>
        <time>2023-11-11T07:19:59Z</time>
      </trkpt>
      <trkpt lat="47.27699" lon="-2.31026">
        <ele>16</ele>
        <time>2023-11-11T07:32:59Z</time>
      </trkpt>
      <trkpt lat="47.27576" lon="-2.30747">
        <ele>18</ele>
        <time>2023-11-11T07:38:00Z</time>
      </trkpt>
      <trkpt lat="47.27431" lon="-2.30047">
        <ele>28</ele>
        <time>2023-11-11T07:49:03Z</time>
      </trkpt>
      <trkpt lat="47.27282" lon="-2.29726">
        <ele>30</ele>
        <time>2023-11-11T07:54:55Z</time>
      </trkpt>
      <trkpt lat="47.27247" lon="-2.29532">
        <ele>32</ele>
        <time>2023-11-11T07:57:56Z</time>
      </trkpt>
      <trkpt lat="47.27174" lon="-2.29339">
        <ele>29</ele>
        <time>2023-11-11T08:01:17Z</time>
      </trkpt>
      <trkpt lat="47.2711" lon="-2.29241">
        <ele>30</ele>
        <time>2023-11-11T08:03:20Z</time>
      </trkpt>
      <trkpt lat="47.27171" lon="-2.29112">
        <ele>28</ele>
        <time>2023-11-11T08:05:42Z</time>
      </trkpt>
      <trkpt lat="47.27049" lon="-2.2903">
        <ele>30</ele>
        <time>2023-11-11T08:08:41Z</time>
      </trkpt>
      <trkpt lat="47.26921" lon="-2.28966">
        <ele>31</ele>
        <time>2023-11-11T08:11:41Z</time>
      </trkpt>
      <trkpt lat="47.26671" lon="-2.29223">
        <ele>37</ele>
        <time>2023-11-11T08:18:28Z</time>
      </trkpt>
      <trkpt lat="47.26481" lon="-2.29335">
        <ele>40</ele>
        <time>2023-11-11T08:23:01Z</time>
      </trkpt>
      <trkpt lat="47.26324" lon="-2.29258">
        <ele>39</ele>
        <time>2023-11-11T08:26:42Z</time>
      </trkpt>
      <trkpt lat="47.26167" lon="-2.29356">
        <ele>35</ele>
        <time>2023-11-11T08:30:30Z</time>
      </trkpt>
      <trkpt lat="47.26126" lon="-2.29464">
        <ele>33</ele>
        <time>2023-11-11T08:32:22Z</time>
      </trkpt>
      <trkpt lat="47.26184" lon="-2.2958">
        <ele>36</ele>
        <time>2023-11-11T08:34:32Z</time>
      </trkpt>
      <trkpt lat="47.25948" lon="-2.2964">
        <ele>25</ele>
        <time>2023-11-11T08:39:52Z</time>
      </trkpt>
      <trkpt lat="47.25992" lon="-2.29923">
        <ele>19</ele>
        <time>2023-11-11T08:44:15Z</time>
      </trkpt>
      <trkpt lat="47.2598" lon="-2.30133">
        <ele>20</ele>
        <time>2023-11-11T08:47:26Z</time>
      </trkpt>
      <trkpt lat="47.25896" lon="-2.30189">
        <ele>19</ele>
        <time>2023-11-11T08:49:29Z</time>
      </trkpt>
      <trkpt lat="47.2589" lon="-2.30262">
        <ele>20</ele>
        <time>2023-11-11T08:50:35Z</time>
      </trkpt>
      <trkpt lat="47.25709" lon="-2.30206">
        <ele>22</ele>
        <time>2023-11-11T08:54:42Z</time>
      </trkpt>
      <trkpt lat="47.25648" lon="-2.30318">
        <ele>21</ele>
        <time>2023-11-11T08:56:52Z</time>
      </trkpt>
      <trkpt lat="47.25584" lon="-2.30176">
        <ele>26</ele>
        <time>2023-11-11T08:59:26Z</time>
      </trkpt>
      <trkpt lat="47.25485" lon="-2.30202">
        <ele>27</ele>
        <time>2023-11-11T09:01:41Z</time>
      </trkpt>
      <trkpt lat="47.25468" lon="-2.30262">
        <ele>27</ele>
        <time>2023-11-11T09:02:40Z</time>
      </trkpt>
      <trkpt lat="47.25308" lon="-2.30206">
        <ele>28</ele>
        <time>2023-11-11T09:06:19Z</time>
      </trkpt>
      <trkpt lat="47.25069" lon="-2.30133">
        <ele>36</ele>
        <time>2023-11-11T09:11:45Z</time>
      </trkpt>
      <trkpt lat="47.25066" lon="-2.3006">
        <ele>36</ele>
        <time>2023-11-11T09:12:51Z</time>
      </trkpt>
      <trkpt lat="47.2492" lon="-2.30056">
        <ele>37</ele>
        <time>2023-11-11T09:16:06Z</time>
      </trkpt>
      <trkpt lat="47.24865" lon="-2.29841">
        <ele>37</ele>
        <time>2023-11-11T09:19:34Z</time>
      </trkpt>
      <trkpt lat="47.24588" lon="-2.29953">
        <ele>36</ele>
        <time>2023-11-11T09:25:57Z</time>
      </trkpt>
      <trkpt lat="47.24538" lon="-2.2988">
        <ele>35</ele>
        <time>2023-11-11T09:27:31Z</time>
      </trkpt>
      <trkpt lat="47.24463" lon="-2.29816">
        <ele>34</ele>
        <time>2023-11-11T09:29:27Z</time>
      </trkpt>
      <trkpt lat="47.24425" lon="-2.29687">
        <ele>34</ele>
        <time>2023-11-11T09:31:34Z</time>
      </trkpt>
      <trkpt lat="47.24329" lon="-2.29811">
        <ele>34</ele>
        <time>2023-11-11T09:34:25Z</time>
      </trkpt>
      <trkpt lat="47.24314" lon="-2.29897">
        <ele>33</ele>
        <time>2023-11-11T09:35:45Z</time>
      </trkpt>
      <trkpt lat="47.24163" lon="-2.29992">
        <ele>38</ele>
        <time>2023-11-11T09:39:24Z</time>
      </trkpt>
      <trkpt lat="47.24154" lon="-2.29867">
        <ele>43</ele>
        <time>2023-11-11T09:41:18Z</time>
      </trkpt>
      <trkpt lat="47.24084" lon="-2.29837">
        <ele>43</ele>
        <time>2023-11-11T09:42:55Z</time>
      </trkpt>
      <trkpt lat="47.24072" lon="-2.29781">
        <ele>42</ele>
        <time>2023-11-11T09:43:49Z</time>
      </trkpt>
      <trkpt lat="47.24017" lon="-2.29803">
        <ele>40</ele>
        <time>2023-11-11T09:45:05Z</time>
      </trkpt>
      <trkpt lat="47.24005" lon="-2.29562">
        <ele>36</ele>
        <time>2023-11-11T09:48:44Z</time>
      </trkpt>
      <trkpt lat="47.23962" lon="-2.29421">
        <ele>34</ele>
        <time>2023-11-11T09:51:04Z</time>
      </trkpt>
      <trkpt lat="47.23897" lon="-2.29314">
        <ele>32</ele>
        <time>2023-11-11T09:53:14Z</time>
      </trkpt>
      <trkpt lat="47.23886" lon="-2.29176">
        <ele>31</ele>
        <time>2023-11-11T09:55:20Z</time>
      </trkpt>
      <trkpt lat="47.239" lon="-2.2909">
        <ele>30</ele>
        <time>2023-11-11T09:56:40Z</time>
      </trkpt>
      <trkpt lat="47.23877" lon="-2.28949">
        <ele>27</ele>
        <time>2023-11-11T09:58:51Z</time>
      </trkpt>
      <trkpt lat="47.2381" lon="-2.2897">
        <ele>25</ele>
        <time>2023-11-11T10:00:22Z</time>
      </trkpt>
      <trkpt lat="47.2381" lon="-2.28914">
        <ele>23</ele>
        <time>2023-11-11T10:01:13Z</time>
      </trkpt>
      <trkpt lat="47.23777" lon="-2.28907">
        <ele>18</ele>
        <time>2023-11-11T10:01:58Z</time>
      </trkpt>
      <trkpt lat="47.23763" lon="-2.28705">
        <ele>16</ele>
        <time>2023-11-11T10:05:02Z</time>
      </trkpt>
      <trkpt lat="47.2375" lon="-2.28467">
        <ele>8</ele>
        <time>2023-11-11T10:08:38Z</time>
      </trkpt>
      <trkpt lat="47.23803" lon="-2.28289">
        <ele>13</ele>
        <time>2023-11-11T10:11:34Z</time>
      </trkpt>
      <trkpt lat="47.23822" lon="-2.28085">
        <ele>7</ele>
        <time>2023-11-11T10:14:41Z</time>
      </trkpt>
      <trkpt lat="47.23775" lon="-2.27722">
        <ele>8</ele>
        <time>2023-11-11T10:20:16Z</time>
      </trkpt>
      <trkpt lat="47.23819" lon="-2.28111">
        <ele>9</ele>
        <time>2023-11-11T10:26:13Z</time>
      </trkpt>
      <trkpt lat="47.23816" lon="-2.28278">
        <ele>15</ele>
        <time>2023-11-11T10:28:44Z</time>
      </trkpt>
      <trkpt lat="47.23782" lon="-2.28291">
        <ele>10</ele>
        <time>2023-11-11T10:29:31Z</time>
      </trkpt>
      <trkpt lat="47.23759" lon="-2.28364">
        <ele>8</ele>
        <time>2023-11-11T10:30:44Z</time>
      </trkpt>
      <trkpt lat="47.23779" lon="-2.28525">
        <ele>13</ele>
        <time>2023-11-11T10:33:12Z</time>
      </trkpt>
      <trkpt lat="47.23771" lon="-2.28658">
        <ele>16</ele>
        <time>2023-11-11T10:35:13Z</time>
      </trkpt>
      <trkpt lat="47.23763" lon="-2.28883">
        <ele>15</ele>
        <time>2023-11-11T10:38:37Z</time>
      </trkpt>
      <trkpt lat="47.23761" lon="-2.28914">
        <ele>15</ele>
        <time>2023-11-11T10:39:06Z</time>
      </trkpt>
      <trkpt lat="47.23758" lon="-2.28987">
        <ele>17</ele>
        <time>2023-11-11T10:40:12Z</time>
      </trkpt>
      <trkpt lat="47.23734" lon="-2.29039">
        <ele>18</ele>
        <time>2023-11-11T10:41:09Z</time>
      </trkpt>
      <trkpt lat="47.23685" lon="-2.29065">
        <ele>13</ele>
        <time>2023-11-11T10:42:18Z</time>
      </trkpt>
      <trkpt lat="47.23656" lon="-2.29112">
        <ele>14</ele>
        <time>2023-11-11T10:43:16Z</time>
      </trkpt>
      <trkpt lat="47.23589" lon="-2.2912">
        <ele>9</ele>
        <time>2023-11-11T10:44:46Z</time>
      </trkpt>
      <trkpt lat="47.23568" lon="-2.29215">
        <ele>14</ele>
        <time>2023-11-11T10:46:16Z</time>
      </trkpt>
      <trkpt lat="47.23525" lon="-2.29253">
        <ele>9</ele>
        <time>2023-11-11T10:47:23Z</time>
      </trkpt>
      <trkpt lat="47.23475" lon="-2.29262">
        <ele>4</ele>
        <time>2023-11-11T10:48:30Z</time>
      </trkpt>
      <trkpt lat="47.2349" lon="-2.29318">
        <ele>4</ele>
        <time>2023-11-11T10:49:25Z</time>
      </trkpt>
      <trkpt lat="47.23527" lon="-2.29344">
        <ele>11</ele>
        <time>2023-11-11T10:50:19Z</time>
      </trkpt>
      <trkpt lat="47.23519" lon="-2.29421">
        <ele>11</ele>
        <time>2023-11-11T10:51:30Z</time>
      </trkpt>
      <trkpt lat="47.23536" lon="-2.29489">
        <ele>14</ele>
        <time>2023-11-11T10:52:36Z</time>
      </trkpt>
      <trkpt lat="47.2351" lon="-2.29537">
        <ele>9</ele>
        <time>2023-11-11T10:53:31Z</time>
      </trkpt>
      <trkpt lat="47.23583" lon="-2.29571">
        <ele>22</ele>
        <time>2023-11-11T10:55:14Z</time>
      </trkpt>
      <trkpt lat="47.23501" lon="-2.2961">
        <ele>9</ele>
        <time>2023-11-11T10:57:09Z</time>
      </trkpt>
      <trkpt lat="47.23516" lon="-2.297">
        <ele>17</ele>
        <time>2023-11-11T10:58:32Z</time>
      </trkpt>
      <trkpt lat="47.23475" lon="-2.29837">
        <ele>24</ele>
        <time>2023-11-11T11:00:48Z</time>
      </trkpt>
      <trkpt lat="47.23431" lon="-2.29876">
        <ele>16</ele>
        <time>2023-11-11T11:01:57Z</time>
      </trkpt>
      <trkpt lat="47.23338" lon="-2.29854">
        <ele>5</ele>
        <time>2023-11-11T11:04:02Z</time>
      </trkpt>
      <trkpt lat="47.23417" lon="-2.29932">
        <ele>10</ele>
        <time>2023-11-11T11:06:09Z</time>
      </trkpt>
      <trkpt lat="47.23472" lon="-2.29987">
        <ele>13</ele>
        <time>2023-11-11T11:07:38Z</time>
      </trkpt>
      <trkpt lat="47.23536" lon="-2.30022">
        <ele>18</ele>
        <time>2023-11-11T11:09:09Z</time>
      </trkpt>
      <trkpt lat="47.23562" lon="-2.30103">
        <ele>12</ele>
        <time>2023-11-11T11:10:30Z</time>
      </trkpt>
      <trkpt lat="47.23676" lon="-2.30142">
        <ele>16</ele>
        <time>2023-11-11T11:13:06Z</time>
      </trkpt>
      <trkpt lat="47.23723" lon="-2.30253">
        <ele>12</ele>
        <time>2023-11-11T11:15:05Z</time>
      </trkpt>
      <trkpt lat="47.23781" lon="-2.30468">
        <ele>13</ele>
        <time>2023-11-11T11:18:35Z</time>
      </trkpt>
      <trkpt lat="47.23848" lon="-2.30704">
        <ele>10</ele>
        <time>2023-11-11T11:22:26Z</time>
      </trkpt>
      <trkpt lat="47.24023" lon="-2.30944">
        <ele>4</ele>
        <time>2023-11-11T11:27:45Z</time>
      </trkpt>
      <trkpt lat="47.2409" lon="-2.30961">
        <ele>8</ele>
        <time>2023-11-11T11:29:16Z</time>
      </trkpt>
      <trkpt lat="47.24107" lon="-2.31052">
        <ele>4</ele>
        <time>2023-11-11T11:30:42Z</time>
      </trkpt>
      <trkpt lat="47.24308" lon="-2.31459">
        <ele>5</ele>
        <time>2023-11-11T11:38:18Z</time>
      </trkpt>
      <trkpt lat="47.24367" lon="-2.31537">
        <ele>11</ele>
        <time>2023-11-11T11:40:03Z</time>
      </trkpt>
      <trkpt lat="47.24367" lon="-2.317">
        <ele>11</ele>
        <time>2023-11-11T11:42:31Z</time>
      </trkpt>
      <trkpt lat="47.24337" lon="-2.31755">
        <ele>7</ele>
        <time>2023-11-11T11:43:35Z</time>
      </trkpt>
      <trkpt lat="47.24436" lon="-2.31884">
        <ele>10</ele>
        <time>2023-11-11T11:46:31Z</time>
      </trkpt>
      <trkpt lat="47.24489" lon="-2.32009">
        <ele>6</ele>
        <time>2023-11-11T11:48:45Z</time>
      </trkpt>
      <trkpt lat="47.24582" lon="-2.32069">
        <ele>10</ele>
        <time>2023-11-11T11:51:00Z</time>
      </trkpt>
      <trkpt lat="47.24722" lon="-2.32292">
        <ele>7</ele>
        <time>2023-11-11T11:55:36Z</time>
      </trkpt>
      <trkpt lat="47.24911" lon="-2.32755">
        <ele>9</ele>
        <time>2023-11-11T12:03:45Z</time>
      </trkpt>
      <trkpt lat="47.25051" lon="-2.33146">
        <ele>8</ele>
        <time>2023-11-11T12:10:25Z</time>
      </trkpt>
      <trkpt lat="47.25243" lon="-2.33532">
        <ele>5</ele>
        <time>2023-11-11T12:17:39Z</time>
      </trkpt>
      <trkpt lat="47.25412" lon="-2.33734">
        <ele>5</ele>
        <time>2023-11-11T12:22:29Z</time>
      </trkpt>
      <trkpt lat="47.25506" lon="-2.33923">
        <ele>6</ele>
        <time>2023-11-11T12:26:02Z</time>
      </trkpt>
      <trkpt lat="47.25625" lon="-2.34047">
        <ele>5</ele>
        <time>2023-11-11T12:29:16Z</time>
      </trkpt>
      <trkpt lat="47.25669" lon="-2.3418">
        <ele>3</ele>
        <time>2023-11-11T12:31:30Z</time>
      </trkpt>
      <trkpt lat="47.25832" lon="-2.34172">
        <ele>5</ele>
        <time>2023-11-11T12:35:08Z</time>
      </trkpt>
      <trkpt lat="47.25913" lon="-2.3415">
        <ele>1</ele>
        <time>2023-11-11T12:36:58Z</time>
      </trkpt>
      <trkpt lat="47.25972" lon="-2.34116">
        <ele>4</ele>
        <time>2023-11-11T12:38:22Z</time>
      </trkpt>
      <trkpt lat="47.25992" lon="-2.3397">
        <ele>5</ele>
        <time>2023-11-11T12:40:37Z</time>
      </trkpt>
      <trkpt lat="47.2603" lon="-2.33837">
        <ele>3</ele>
        <time>2023-11-11T12:42:48Z</time>
      </trkpt>
      <trkpt lat="47.26074" lon="-2.3385">
        <ele>4</ele>
        <time>2023-11-11T12:43:48Z</time>
      </trkpt>
      <trkpt lat="47.26103" lon="-2.3379">
        <ele>4</ele>
        <time>2023-11-11T12:44:54Z</time>
      </trkpt>
      <trkpt lat="47.26076" lon="-2.33657">
        <ele>3</ele>
        <time>2023-11-11T12:47:00Z</time>
      </trkpt>
      <trkpt lat="47.26135" lon="-2.33528">
        <ele>3</ele>
        <time>2023-11-11T12:49:21Z</time>
      </trkpt>
      <trkpt lat="47.26155" lon="-2.33421">
        <ele>3</ele>
        <time>2023-11-11T12:51:01Z</time>
      </trkpt>
      <trkpt lat="47.26333" lon="-2.33391">
        <ele>2</ele>
        <time>2023-11-11T12:55:01Z</time>
      </trkpt>
      <trkpt lat="47.26475" lon="-2.333">
        <ele>1</ele>
        <time>2023-11-11T12:58:27Z</time>
      </trkpt>
      <trkpt lat="47.26502" lon="-2.33223">
        <ele>3</ele>
        <time>2023-11-11T12:59:46Z</time>
      </trkpt>
      <trkpt lat="47.26583" lon="-2.33172">
        <ele>2</ele>
        <time>2023-11-11T13:01:43Z</time>
      </trkpt>
      <trkpt lat="47.2672" lon="-2.33004">
        <ele>7</ele>
        <time>2023-11-11T13:05:41Z</time>
      </trkpt>
    </trkseg>
  </trk>
  <trk>
    <name><![CDATA[Pornichet_PlageBocage_16.1km-7072345]]></name>
    <extensions>
      <line xmlns="http://www.topografix.com/GPX/gpx_style/0/2">
        <color>00FF00</color>
        <width>4</width>
      </line>
    </extensions>
    <trkseg>
      <trkpt lat="47.26697" lon="-2.33086">
        <ele>5</ele>
        <time>2023-11-11T06:34:52Z</time>
      </trkpt>
      <trkpt lat="47.2684" lon="-2.32858">
        <ele>8</ele>
        <time>2023-11-11T06:39:33Z</time>
      </trkpt>
      <trkpt lat="47.26773" lon="-2.32378">
        <ele>17</ele>
        <time>2023-11-11T06:46:57Z</time>
      </trkpt>
      <trkpt lat="47.26921" lon="-2.32352">
        <ele>9</ele>
        <time>2023-11-11T06:50:16Z</time>
      </trkpt>
      <trkpt lat="47.27011" lon="-2.32519">
        <ele>5</ele>
        <time>2023-11-11T06:53:29Z</time>
      </trkpt>
      <trkpt lat="47.27035" lon="-2.32451">
        <ele>3</ele>
        <time>2023-11-11T06:54:38Z</time>
      </trkpt>
      <trkpt lat="47.27026" lon="-2.3221">
        <ele>4</ele>
        <time>2023-11-11T06:58:17Z</time>
      </trkpt>
      <trkpt lat="47.26985" lon="-2.32146">
        <ele>6</ele>
        <time>2023-11-11T06:59:37Z</time>
      </trkpt>
      <trkpt lat="47.27017" lon="-2.32034">
        <ele>8</ele>
        <time>2023-11-11T07:01:27Z</time>
      </trkpt>
      <trkpt lat="47.27005" lon="-2.3197">
        <ele>11</ele>
        <time>2023-11-11T07:02:27Z</time>
      </trkpt>
      <trkpt lat="47.27093" lon="-2.31961">
        <ele>8</ele>
        <time>2023-11-11T07:04:24Z</time>
      </trkpt>
      <trkpt lat="47.27166" lon="-2.31991">
        <ele>7</ele>
        <time>2023-11-11T07:06:06Z</time>
      </trkpt>
      <trkpt lat="47.27221" lon="-2.31923">
        <ele>9</ele>
        <time>2023-11-11T07:07:41Z</time>
      </trkpt>
      <trkpt lat="47.27413" lon="-2.32022">
        <ele>6</ele>
        <time>2023-11-11T07:12:13Z</time>
      </trkpt>
      <trkpt lat="47.27495" lon="-2.31833">
        <ele>6</ele>
        <time>2023-11-11T07:15:36Z</time>
      </trkpt>
      <trkpt lat="47.27699" lon="-2.31026">
        <ele>16</ele>
        <time>2023-11-11T07:28:36Z</time>
      </trkpt>
      <trkpt lat="47.27576" lon="-2.30747">
        <ele>18</ele>
        <time>2023-11-11T07:33:37Z</time>
      </trkpt>
      <trkpt lat="47.27431" lon="-2.30047">
        <ele>28</ele>
        <time>2023-11-11T07:44:40Z</time>
      </trkpt>
      <trkpt lat="47.27282" lon="-2.29726">
        <ele>30</ele>
        <time>2023-11-11T07:50:32Z</time>
      </trkpt>
      <trkpt lat="47.27247" lon="-2.29532">
        <ele>32</ele>
        <time>2023-11-11T07:53:33Z</time>
      </trkpt>
      <trkpt lat="47.27174" lon="-2.29339">
        <ele>29</ele>
        <time>2023-11-11T07:56:54Z</time>
      </trkpt>
      <trkpt lat="47.2711" lon="-2.29241">
        <ele>30</ele>
        <time>2023-11-11T07:58:57Z</time>
      </trkpt>
      <trkpt lat="47.27171" lon="-2.29112">
        <ele>28</ele>
        <time>2023-11-11T08:01:19Z</time>
      </trkpt>
      <trkpt lat="47.27049" lon="-2.2903">
        <ele>30</ele>
        <time>2023-11-11T08:04:18Z</time>
      </trkpt>
      <trkpt lat="47.26921" lon="-2.28966">
        <ele>31</ele>
        <time>2023-11-11T08:07:18Z</time>
      </trkpt>
      <trkpt lat="47.26671" lon="-2.29223">
        <ele>37</ele>
        <time>2023-11-11T08:14:05Z</time>
      </trkpt>
      <trkpt lat="47.26481" lon="-2.29335">
        <ele>40</ele>
        <time>2023-11-11T08:18:38Z</time>
      </trkpt>
      <trkpt lat="47.26324" lon="-2.29258">
        <ele>39</ele>
        <time>2023-11-11T08:22:19Z</time>
      </trkpt>
      <trkpt lat="47.26167" lon="-2.29356">
        <ele>35</ele>
        <time>2023-11-11T08:26:07Z</time>
      </trkpt>
      <trkpt lat="47.26126" lon="-2.29464">
        <ele>33</ele>
        <time>2023-11-11T08:27:59Z</time>
      </trkpt>
      <trkpt lat="47.26184" lon="-2.2958">
        <ele>36</ele>
        <time>2023-11-11T08:30:09Z</time>
      </trkpt>
      <trkpt lat="47.25948" lon="-2.2964">
        <ele>25</ele>
        <time>2023-11-11T08:35:29Z</time>
      </trkpt>
      <trkpt lat="47.25992" lon="-2.29923">
        <ele>19</ele>
        <time>2023-11-11T08:39:52Z</time>
      </trkpt>
      <trkpt lat="47.2598" lon="-2.30133">
        <ele>20</ele>
        <time>2023-11-11T08:43:03Z</time>
      </trkpt>
      <trkpt lat="47.25896" lon="-2.30189">
        <ele>19</ele>
        <time>2023-11-11T08:45:06Z</time>
      </trkpt>
      <trkpt lat="47.2589" lon="-2.30262">
        <ele>20</ele>
        <time>2023-11-11T08:46:12Z</time>
      </trkpt>
      <trkpt lat="47.25709" lon="-2.30206">
        <ele>22</ele>
        <time>2023-11-11T08:50:19Z</time>
      </trkpt>
      <trkpt lat="47.25648" lon="-2.30318">
        <ele>21</ele>
        <time>2023-11-11T08:52:29Z</time>
      </trkpt>
      <trkpt lat="47.25584" lon="-2.30176">
        <ele>26</ele>
        <time>2023-11-11T08:55:03Z</time>
      </trkpt>
      <trkpt lat="47.25485" lon="-2.30202">
        <ele>27</ele>
        <time>2023-11-11T08:57:18Z</time>
      </trkpt>
      <trkpt lat="47.25468" lon="-2.30262">
        <ele>27</ele>
        <time>2023-11-11T08:58:17Z</time>
      </trkpt>
      <trkpt lat="47.25308" lon="-2.30206">
        <ele>28</ele>
        <time>2023-11-11T09:01:56Z</time>
      </trkpt>
      <trkpt lat="47.25069" lon="-2.30133">
        <ele>36</ele>
        <time>2023-11-11T09:07:22Z</time>
      </trkpt>
      <trkpt lat="47.25066" lon="-2.3006">
        <ele>36</ele>
        <time>2023-11-11T09:08:28Z</time>
      </trkpt>
      <trkpt lat="47.2492" lon="-2.30056">
        <ele>37</ele>
        <time>2023-11-11T09:11:43Z</time>
      </trkpt>
      <trkpt lat="47.24865" lon="-2.29841">
        <ele>37</ele>
        <time>2023-11-11T09:15:11Z</time>
      </trkpt>
      <trkpt lat="47.24588" lon="-2.29953">
        <ele>36</ele>
        <time>2023-11-11T09:21:34Z</time>
      </trkpt>
      <trkpt lat="47.24538" lon="-2.2988">
        <ele>35</ele>
        <time>2023-11-11T09:23:08Z</time>
      </trkpt>
      <trkpt lat="47.24463" lon="-2.29816">
        <ele>34</ele>
        <time>2023-11-11T09:25:04Z</time>
      </trkpt>
      <trkpt lat="47.24425" lon="-2.29687">
        <ele>34</ele>
        <time>2023-11-11T09:27:11Z</time>
      </trkpt>
      <trkpt lat="47.24329" lon="-2.29811">
        <ele>34</ele>
        <time>2023-11-11T09:30:02Z</time>
      </trkpt>
      <trkpt lat="47.24314" lon="-2.29897">
        <ele>33</ele>
        <time>2023-11-11T09:31:22Z</time>
      </trkpt>
      <trkpt lat="47.24163" lon="-2.29992">
        <ele>38</ele>
        <time>2023-11-11T09:35:01Z</time>
      </trkpt>
      <trkpt lat="47.24154" lon="-2.29867">
        <ele>43</ele>
        <time>2023-11-11T09:36:55Z</time>
      </trkpt>
      <trkpt lat="47.24084" lon="-2.29837">
        <ele>43</ele>
        <time>2023-11-11T09:38:32Z</time>
      </trkpt>
      <trkpt lat="47.24072" lon="-2.29781">
        <ele>42</ele>
        <time>2023-11-11T09:39:26Z</time>
      </trkpt>
      <trkpt lat="47.24017" lon="-2.29803">
        <ele>40</ele>
        <time>2023-11-11T09:40:42Z</time>
      </trkpt>
      <trkpt lat="47.24005" lon="-2.29562">
        <ele>36</ele>
        <time>2023-11-11T09:44:21Z</time>
      </trkpt>
      <trkpt lat="47.23962" lon="-2.29421">
        <ele>34</ele>
        <time>2023-11-11T09:46:41Z</time>
      </trkpt>
      <trkpt lat="47.23897" lon="-2.29314">
        <ele>32</ele>
        <time>2023-11-11T09:48:51Z</time>
      </trkpt>
      <trkpt lat="47.23816" lon="-2.29425">
        <ele>31</ele>
        <time>2023-11-11T09:51:18Z</time>
      </trkpt>
      <trkpt lat="47.23807" lon="-2.29683">
        <ele>32</ele>
        <time>2023-11-11T09:55:12Z</time>
      </trkpt>
      <trkpt lat="47.23801" lon="-2.2982">
        <ele>32</ele>
        <time>2023-11-11T09:57:17Z</time>
      </trkpt>
      <trkpt lat="47.23839" lon="-2.30035">
        <ele>29</ele>
        <time>2023-11-11T10:00:38Z</time>
      </trkpt>
      <trkpt lat="47.23772" lon="-2.3009">
        <ele>25</ele>
        <time>2023-11-11T10:02:20Z</time>
      </trkpt>
      <trkpt lat="47.23705" lon="-2.3006">
        <ele>24</ele>
        <time>2023-11-11T10:03:54Z</time>
      </trkpt>
      <trkpt lat="47.23676" lon="-2.30142">
        <ele>16</ele>
        <time>2023-11-11T10:05:18Z</time>
      </trkpt>
      <trkpt lat="47.23723" lon="-2.30253">
        <ele>12</ele>
        <time>2023-11-11T10:07:16Z</time>
      </trkpt>
      <trkpt lat="47.23781" lon="-2.30468">
        <ele>13</ele>
        <time>2023-11-11T10:10:46Z</time>
      </trkpt>
      <trkpt lat="47.23848" lon="-2.30704">
        <ele>10</ele>
        <time>2023-11-11T10:14:38Z</time>
      </trkpt>
      <trkpt lat="47.24023" lon="-2.30944">
        <ele>4</ele>
        <time>2023-11-11T10:19:57Z</time>
      </trkpt>
      <trkpt lat="47.2409" lon="-2.30961">
        <ele>8</ele>
        <time>2023-11-11T10:21:27Z</time>
      </trkpt>
      <trkpt lat="47.24107" lon="-2.31052">
        <ele>4</ele>
        <time>2023-11-11T10:22:53Z</time>
      </trkpt>
      <trkpt lat="47.24308" lon="-2.31459">
        <ele>5</ele>
        <time>2023-11-11T10:30:29Z</time>
      </trkpt>
      <trkpt lat="47.24367" lon="-2.31537">
        <ele>11</ele>
        <time>2023-11-11T10:32:15Z</time>
      </trkpt>
      <trkpt lat="47.24367" lon="-2.317">
        <ele>11</ele>
        <time>2023-11-11T10:34:42Z</time>
      </trkpt>
      <trkpt lat="47.24337" lon="-2.31755">
        <ele>7</ele>
        <time>2023-11-11T10:35:46Z</time>
      </trkpt>
      <trkpt lat="47.24436" lon="-2.31884">
        <ele>10</ele>
        <time>2023-11-11T10:38:43Z</time>
      </trkpt>
      <trkpt lat="47.24489" lon="-2.32009">
        <ele>6</ele>
        <time>2023-11-11T10:40:56Z</time>
      </trkpt>
      <trkpt lat="47.24582" lon="-2.32069">
        <ele>10</ele>
        <time>2023-11-11T10:43:12Z</time>
      </trkpt>
      <trkpt lat="47.24722" lon="-2.32292">
        <ele>7</ele>
        <time>2023-11-11T10:47:47Z</time>
      </trkpt>
      <trkpt lat="47.24911" lon="-2.32755">
        <ele>9</ele>
        <time>2023-11-11T10:55:56Z</time>
      </trkpt>
      <trkpt lat="47.25051" lon="-2.33146">
        <ele>8</ele>
        <time>2023-11-11T11:02:37Z</time>
      </trkpt>
      <trkpt lat="47.25243" lon="-2.33532">
        <ele>5</ele>
        <time>2023-11-11T11:09:50Z</time>
      </trkpt>
      <trkpt lat="47.25412" lon="-2.33734">
        <ele>5</ele>
        <time>2023-11-11T11:14:40Z</time>
      </trkpt>
      <trkpt lat="47.25506" lon="-2.33923">
        <ele>6</ele>
        <time>2023-11-11T11:18:13Z</time>
      </trkpt>
      <trkpt lat="47.25625" lon="-2.34047">
        <ele>5</ele>
        <time>2023-11-11T11:21:27Z</time>
      </trkpt>
      <trkpt lat="47.25669" lon="-2.3418">
        <ele>3</ele>
        <time>2023-11-11T11:23:41Z</time>
      </trkpt>
      <trkpt lat="47.25832" lon="-2.34172">
        <ele>5</ele>
        <time>2023-11-11T11:27:19Z</time>
      </trkpt>
      <trkpt lat="47.25913" lon="-2.3415">
        <ele>1</ele>
        <time>2023-11-11T11:29:09Z</time>
      </trkpt>
      <trkpt lat="47.25972" lon="-2.34116">
        <ele>4</ele>
        <time>2023-11-11T11:30:33Z</time>
      </trkpt>
      <trkpt lat="47.25992" lon="-2.3397">
        <ele>5</ele>
        <time>2023-11-11T11:32:48Z</time>
      </trkpt>
      <trkpt lat="47.2603" lon="-2.33837">
        <ele>3</ele>
        <time>2023-11-11T11:34:59Z</time>
      </trkpt>
      <trkpt lat="47.26074" lon="-2.3385">
        <ele>4</ele>
        <time>2023-11-11T11:35:59Z</time>
      </trkpt>
      <trkpt lat="47.26103" lon="-2.3379">
        <ele>4</ele>
        <time>2023-11-11T11:37:06Z</time>
      </trkpt>
      <trkpt lat="47.26076" lon="-2.33657">
        <ele>3</ele>
        <time>2023-11-11T11:39:11Z</time>
      </trkpt>
      <trkpt lat="47.26135" lon="-2.33528">
        <ele>3</ele>
        <time>2023-11-11T11:41:32Z</time>
      </trkpt>
      <trkpt lat="47.26155" lon="-2.33421">
        <ele>3</ele>
        <time>2023-11-11T11:43:13Z</time>
      </trkpt>
      <trkpt lat="47.26333" lon="-2.33391">
        <ele>2</ele>
        <time>2023-11-11T11:47:12Z</time>
      </trkpt>
      <trkpt lat="47.26475" lon="-2.333">
        <ele>1</ele>
        <time>2023-11-11T11:50:38Z</time>
      </trkpt>
      <trkpt lat="47.26502" lon="-2.33223">
        <ele>3</ele>
        <time>2023-11-11T11:51:57Z</time>
      </trkpt>
      <trkpt lat="47.26583" lon="-2.33172">
        <ele>2</ele>
        <time>2023-11-11T11:53:54Z</time>
      </trkpt>
      <trkpt lat="47.2672" lon="-2.33004">
        <ele>7</ele>
        <time>2023-11-11T11:57:52Z</time>
      </trkpt>
    </trkseg>
  </trk>
  <trk>
    <name><![CDATA[Pornichet_BocageEtOcéan_22km-13291056]]></name>
    <extensions>
      <line xmlns="http://www.topografix.com/GPX/gpx_style/0/2">
        <color>FF0000</color>
        <width>4</width>
      </line>
    </extensions>
    <trkseg>
      <trkpt lat="47.26143" lon="-2.33542">
        <ele>4</ele>
        <time>2023-11-11T06:35:03Z</time>
      </trkpt>
      <trkpt lat="47.26151" lon="-2.33513">
        <ele>3</ele>
        <time>2023-11-11T06:35:31Z</time>
      </trkpt>
      <trkpt lat="47.26149" lon="-2.33483">
        <ele>3</ele>
        <time>2023-11-11T06:35:59Z</time>
      </trkpt>
      <trkpt lat="47.2613" lon="-2.33466">
        <ele>3</ele>
        <time>2023-11-11T06:36:28Z</time>
      </trkpt>
      <trkpt lat="47.26136" lon="-2.33432">
        <ele>3</ele>
        <time>2023-11-11T06:37:00Z</time>
      </trkpt>
      <trkpt lat="47.26076" lon="-2.33346">
        <ele>1</ele>
        <time>2023-11-11T06:38:52Z</time>
      </trkpt>
      <trkpt lat="47.26053" lon="-2.33295">
        <ele>1</ele>
        <time>2023-11-11T06:39:47Z</time>
      </trkpt>
      <trkpt lat="47.26011" lon="-2.33164">
        <ele>1</ele>
        <time>2023-11-11T06:41:59Z</time>
      </trkpt>
      <trkpt lat="47.25997" lon="-2.33146">
        <ele>1</ele>
        <time>2023-11-11T06:42:23Z</time>
      </trkpt>
      <trkpt lat="47.25986" lon="-2.3312">
        <ele>2</ele>
        <time>2023-11-11T06:42:51Z</time>
      </trkpt>
      <trkpt lat="47.25985" lon="-2.33094">
        <ele>2</ele>
        <time>2023-11-11T06:43:15Z</time>
      </trkpt>
      <trkpt lat="47.25959" lon="-2.33009">
        <ele>2</ele>
        <time>2023-11-11T06:44:39Z</time>
      </trkpt>
      <trkpt lat="47.25949" lon="-2.32981">
        <ele>2</ele>
        <time>2023-11-11T06:45:08Z</time>
      </trkpt>
      <trkpt lat="47.25935" lon="-2.32958">
        <ele>2</ele>
        <time>2023-11-11T06:45:36Z</time>
      </trkpt>
      <trkpt lat="47.25922" lon="-2.32929">
        <ele>2</ele>
        <time>2023-11-11T06:46:07Z</time>
      </trkpt>
      <trkpt lat="47.25913" lon="-2.329">
        <ele>2</ele>
        <time>2023-11-11T06:46:36Z</time>
      </trkpt>
      <trkpt lat="47.2589" lon="-2.32844">
        <ele>2</ele>
        <time>2023-11-11T06:47:35Z</time>
      </trkpt>
      <trkpt lat="47.2587" lon="-2.32759">
        <ele>1</ele>
        <time>2023-11-11T06:48:57Z</time>
      </trkpt>
      <trkpt lat="47.25876" lon="-2.32732">
        <ele>1</ele>
        <time>2023-11-11T06:49:23Z</time>
      </trkpt>
      <trkpt lat="47.25892" lon="-2.32708">
        <ele>3.5</ele>
        <time>2023-11-11T06:49:53Z</time>
      </trkpt>
      <trkpt lat="47.25909" lon="-2.32689">
        <ele>3.4</ele>
        <time>2023-11-11T06:50:21Z</time>
      </trkpt>
      <trkpt lat="47.25929" lon="-2.32676">
        <ele>3.4</ele>
        <time>2023-11-11T06:50:51Z</time>
      </trkpt>
      <trkpt lat="47.25948" lon="-2.32672">
        <ele>3</ele>
        <time>2023-11-11T06:51:16Z</time>
      </trkpt>
      <trkpt lat="47.25962" lon="-2.32654">
        <ele>3.2</ele>
        <time>2023-11-11T06:51:41Z</time>
      </trkpt>
      <trkpt lat="47.26005" lon="-2.32656">
        <ele>1</ele>
        <time>2023-11-11T06:52:38Z</time>
      </trkpt>
      <trkpt lat="47.26091" lon="-2.3264">
        <ele>5</ele>
        <time>2023-11-11T06:54:34Z</time>
      </trkpt>
      <trkpt lat="47.26134" lon="-2.3264">
        <ele>4</ele>
        <time>2023-11-11T06:55:32Z</time>
      </trkpt>
      <trkpt lat="47.26174" lon="-2.32658">
        <ele>3</ele>
        <time>2023-11-11T06:56:27Z</time>
      </trkpt>
      <trkpt lat="47.26211" lon="-2.32691">
        <ele>3</ele>
        <time>2023-11-11T06:57:25Z</time>
      </trkpt>
      <trkpt lat="47.26267" lon="-2.32778">
        <ele>2</ele>
        <time>2023-11-11T06:59:14Z</time>
      </trkpt>
      <trkpt lat="47.26286" lon="-2.32776">
        <ele>2</ele>
        <time>2023-11-11T06:59:39Z</time>
      </trkpt>
      <trkpt lat="47.26298" lon="-2.32749">
        <ele>2</ele>
        <time>2023-11-11T07:00:08Z</time>
      </trkpt>
      <trkpt lat="47.26304" lon="-2.32723">
        <ele>2</ele>
        <time>2023-11-11T07:00:33Z</time>
      </trkpt>
      <trkpt lat="47.26317" lon="-2.32696">
        <ele>2</ele>
        <time>2023-11-11T07:01:03Z</time>
      </trkpt>
      <trkpt lat="47.26337" lon="-2.32693">
        <ele>2</ele>
        <time>2023-11-11T07:01:30Z</time>
      </trkpt>
      <trkpt lat="47.26374" lon="-2.32715">
        <ele>3</ele>
        <time>2023-11-11T07:02:23Z</time>
      </trkpt>
      <trkpt lat="47.26391" lon="-2.32736">
        <ele>3</ele>
        <time>2023-11-11T07:02:53Z</time>
      </trkpt>
      <trkpt lat="47.264" lon="-2.32761">
        <ele>3</ele>
        <time>2023-11-11T07:03:18Z</time>
      </trkpt>
      <trkpt lat="47.26407" lon="-2.32788">
        <ele>3</ele>
        <time>2023-11-11T07:03:45Z</time>
      </trkpt>
      <trkpt lat="47.26407" lon="-2.32818">
        <ele>3</ele>
        <time>2023-11-11T07:04:12Z</time>
      </trkpt>
      <trkpt lat="47.26411" lon="-2.32845">
        <ele>3</ele>
        <time>2023-11-11T07:04:37Z</time>
      </trkpt>
      <trkpt lat="47.2641" lon="-2.32935">
        <ele>3</ele>
        <time>2023-11-11T07:05:58Z</time>
      </trkpt>
      <trkpt lat="47.26417" lon="-2.32962">
        <ele>3</ele>
        <time>2023-11-11T07:06:25Z</time>
      </trkpt>
      <trkpt lat="47.26429" lon="-2.32986">
        <ele>4</ele>
        <time>2023-11-11T07:06:52Z</time>
      </trkpt>
      <trkpt lat="47.26476" lon="-2.33043">
        <ele>4</ele>
        <time>2023-11-11T07:08:13Z</time>
      </trkpt>
      <trkpt lat="47.26509" lon="-2.33078">
        <ele>3</ele>
        <time>2023-11-11T07:09:07Z</time>
      </trkpt>
      <trkpt lat="47.26582" lon="-2.33132">
        <ele>3</ele>
        <time>2023-11-11T07:10:56Z</time>
      </trkpt>
      <trkpt lat="47.2662" lon="-2.33149">
        <ele>2</ele>
        <time>2023-11-11T07:11:49Z</time>
      </trkpt>
      <trkpt lat="47.26638" lon="-2.33142">
        <ele>2</ele>
        <time>2023-11-11T07:12:14Z</time>
      </trkpt>
      <trkpt lat="47.26658" lon="-2.33129">
        <ele>3</ele>
        <time>2023-11-11T07:12:43Z</time>
      </trkpt>
      <trkpt lat="47.26712" lon="-2.33072">
        <ele>5</ele>
        <time>2023-11-11T07:14:12Z</time>
      </trkpt>
      <trkpt lat="47.26725" lon="-2.33044">
        <ele>6</ele>
        <time>2023-11-11T07:14:42Z</time>
      </trkpt>
      <trkpt lat="47.26727" lon="-2.33013">
        <ele>7</ele>
        <time>2023-11-11T07:15:11Z</time>
      </trkpt>
      <trkpt lat="47.26735" lon="-2.3298">
        <ele>7</ele>
        <time>2023-11-11T07:15:42Z</time>
      </trkpt>
      <trkpt lat="47.26781" lon="-2.32928">
        <ele>7</ele>
        <time>2023-11-11T07:17:00Z</time>
      </trkpt>
      <trkpt lat="47.26816" lon="-2.32899">
        <ele>7</ele>
        <time>2023-11-11T07:17:53Z</time>
      </trkpt>
      <trkpt lat="47.26832" lon="-2.32882">
        <ele>7</ele>
        <time>2023-11-11T07:18:20Z</time>
      </trkpt>
      <trkpt lat="47.26851" lon="-2.32879">
        <ele>7</ele>
        <time>2023-11-11T07:18:45Z</time>
      </trkpt>
      <trkpt lat="47.26854" lon="-2.32849">
        <ele>8</ele>
        <time>2023-11-11T07:19:13Z</time>
      </trkpt>
      <trkpt lat="47.26845" lon="-2.32826">
        <ele>9</ele>
        <time>2023-11-11T07:19:37Z</time>
      </trkpt>
      <trkpt lat="47.26821" lon="-2.3274">
        <ele>14</ele>
        <time>2023-11-11T07:21:01Z</time>
      </trkpt>
      <trkpt lat="47.268" lon="-2.32693">
        <ele>15</ele>
        <time>2023-11-11T07:21:52Z</time>
      </trkpt>
      <trkpt lat="47.26807" lon="-2.32659">
        <ele>15</ele>
        <time>2023-11-11T07:22:24Z</time>
      </trkpt>
      <trkpt lat="47.26794" lon="-2.32567">
        <ele>16</ele>
        <time>2023-11-11T07:23:49Z</time>
      </trkpt>
      <trkpt lat="47.26795" lon="-2.32539">
        <ele>16</ele>
        <time>2023-11-11T07:24:14Z</time>
      </trkpt>
      <trkpt lat="47.26791" lon="-2.32475">
        <ele>16</ele>
        <time>2023-11-11T07:25:13Z</time>
      </trkpt>
      <trkpt lat="47.26776" lon="-2.32386">
        <ele>17</ele>
        <time>2023-11-11T07:26:36Z</time>
      </trkpt>
      <trkpt lat="47.2679" lon="-2.32363">
        <ele>17</ele>
        <time>2023-11-11T07:27:04Z</time>
      </trkpt>
      <trkpt lat="47.26872" lon="-2.32343">
        <ele>13</ele>
        <time>2023-11-11T07:28:55Z</time>
      </trkpt>
      <trkpt lat="47.26891" lon="-2.32336">
        <ele>11</ele>
        <time>2023-11-11T07:29:21Z</time>
      </trkpt>
      <trkpt lat="47.26912" lon="-2.32333">
        <ele>9</ele>
        <time>2023-11-11T07:29:49Z</time>
      </trkpt>
      <trkpt lat="47.26927" lon="-2.32349">
        <ele>8</ele>
        <time>2023-11-11T07:30:14Z</time>
      </trkpt>
      <trkpt lat="47.26956" lon="-2.3243">
        <ele>6</ele>
        <time>2023-11-11T07:31:36Z</time>
      </trkpt>
      <trkpt lat="47.26969" lon="-2.32449">
        <ele>6</ele>
        <time>2023-11-11T07:32:01Z</time>
      </trkpt>
      <trkpt lat="47.26993" lon="-2.32494">
        <ele>5</ele>
        <time>2023-11-11T07:32:53Z</time>
      </trkpt>
      <trkpt lat="47.27011" lon="-2.32503">
        <ele>5</ele>
        <time>2023-11-11T07:33:18Z</time>
      </trkpt>
      <trkpt lat="47.27026" lon="-2.32487">
        <ele>4</ele>
        <time>2023-11-11T07:33:43Z</time>
      </trkpt>
      <trkpt lat="47.27028" lon="-2.32423">
        <ele>3</ele>
        <time>2023-11-11T07:34:41Z</time>
      </trkpt>
      <trkpt lat="47.27017" lon="-2.32332">
        <ele>4</ele>
        <time>2023-11-11T07:36:05Z</time>
      </trkpt>
      <trkpt lat="47.27018" lon="-2.32221">
        <ele>3</ele>
        <time>2023-11-11T07:37:45Z</time>
      </trkpt>
      <trkpt lat="47.27009" lon="-2.32191">
        <ele>4</ele>
        <time>2023-11-11T07:38:15Z</time>
      </trkpt>
      <trkpt lat="47.26986" lon="-2.32146">
        <ele>5</ele>
        <time>2023-11-11T07:39:06Z</time>
      </trkpt>
      <trkpt lat="47.2701" lon="-2.32099">
        <ele>6</ele>
        <time>2023-11-11T07:39:59Z</time>
      </trkpt>
      <trkpt lat="47.27016" lon="-2.32066">
        <ele>7</ele>
        <time>2023-11-11T07:40:30Z</time>
      </trkpt>
      <trkpt lat="47.27015" lon="-2.3204">
        <ele>8</ele>
        <time>2023-11-11T07:40:54Z</time>
      </trkpt>
      <trkpt lat="47.27003" lon="-2.31986">
        <ele>11</ele>
        <time>2023-11-11T07:41:45Z</time>
      </trkpt>
      <trkpt lat="47.2702" lon="-2.31968">
        <ele>11</ele>
        <time>2023-11-11T07:42:13Z</time>
      </trkpt>
      <trkpt lat="47.27038" lon="-2.31957">
        <ele>10</ele>
        <time>2023-11-11T07:42:39Z</time>
      </trkpt>
      <trkpt lat="47.27099" lon="-2.31959">
        <ele>8</ele>
        <time>2023-11-11T07:44:00Z</time>
      </trkpt>
      <trkpt lat="47.27158" lon="-2.31995">
        <ele>7</ele>
        <time>2023-11-11T07:45:26Z</time>
      </trkpt>
      <trkpt lat="47.27174" lon="-2.31974">
        <ele>7</ele>
        <time>2023-11-11T07:45:54Z</time>
      </trkpt>
      <trkpt lat="47.27194" lon="-2.31958">
        <ele>8</ele>
        <time>2023-11-11T07:46:25Z</time>
      </trkpt>
      <trkpt lat="47.27206" lon="-2.31935">
        <ele>9</ele>
        <time>2023-11-11T07:46:51Z</time>
      </trkpt>
      <trkpt lat="47.2722" lon="-2.31916">
        <ele>9</ele>
        <time>2023-11-11T07:47:16Z</time>
      </trkpt>
      <trkpt lat="47.27303" lon="-2.31948">
        <ele>8</ele>
        <time>2023-11-11T07:49:11Z</time>
      </trkpt>
      <trkpt lat="47.27321" lon="-2.31965">
        <ele>7</ele>
        <time>2023-11-11T07:49:39Z</time>
      </trkpt>
      <trkpt lat="47.27362" lon="-2.31995">
        <ele>6</ele>
        <time>2023-11-11T07:50:40Z</time>
      </trkpt>
      <trkpt lat="47.27378" lon="-2.32014">
        <ele>6</ele>
        <time>2023-11-11T07:51:08Z</time>
      </trkpt>
      <trkpt lat="47.27398" lon="-2.32028">
        <ele>6</ele>
        <time>2023-11-11T07:51:37Z</time>
      </trkpt>
      <trkpt lat="47.27418" lon="-2.32038">
        <ele>6</ele>
        <time>2023-11-11T07:52:05Z</time>
      </trkpt>
      <trkpt lat="47.27433" lon="-2.32022">
        <ele>7</ele>
        <time>2023-11-11T07:52:30Z</time>
      </trkpt>
      <trkpt lat="47.27458" lon="-2.31972">
        <ele>7</ele>
        <time>2023-11-11T07:53:26Z</time>
      </trkpt>
      <trkpt lat="47.27516" lon="-2.31824">
        <ele>7</ele>
        <time>2023-11-11T07:56:01Z</time>
      </trkpt>
      <trkpt lat="47.27561" lon="-2.31633">
        <ele>10</ele>
        <time>2023-11-11T07:59:04Z</time>
      </trkpt>
      <trkpt lat="47.27597" lon="-2.31526">
        <ele>10</ele>
        <time>2023-11-11T08:00:52Z</time>
      </trkpt>
      <trkpt lat="47.27615" lon="-2.31443">
        <ele>11</ele>
        <time>2023-11-11T08:02:11Z</time>
      </trkpt>
      <trkpt lat="47.27646" lon="-2.31331">
        <ele>13</ele>
        <time>2023-11-11T08:04:01Z</time>
      </trkpt>
      <trkpt lat="47.27657" lon="-2.31308">
        <ele>14</ele>
        <time>2023-11-11T08:04:26Z</time>
      </trkpt>
      <trkpt lat="47.27665" lon="-2.31281">
        <ele>15</ele>
        <time>2023-11-11T08:04:53Z</time>
      </trkpt>
      <trkpt lat="47.27697" lon="-2.31138">
        <ele>16</ele>
        <time>2023-11-11T08:07:09Z</time>
      </trkpt>
      <trkpt lat="47.27707" lon="-2.31114">
        <ele>15</ele>
        <time>2023-11-11T08:07:35Z</time>
      </trkpt>
      <trkpt lat="47.27714" lon="-2.31089">
        <ele>16</ele>
        <time>2023-11-11T08:07:59Z</time>
      </trkpt>
      <trkpt lat="47.27701" lon="-2.31039">
        <ele>16</ele>
        <time>2023-11-11T08:08:48Z</time>
      </trkpt>
      <trkpt lat="47.27677" lon="-2.30986">
        <ele>16</ele>
        <time>2023-11-11T08:09:45Z</time>
      </trkpt>
      <trkpt lat="47.27668" lon="-2.30958">
        <ele>16</ele>
        <time>2023-11-11T08:10:13Z</time>
      </trkpt>
      <trkpt lat="47.27643" lon="-2.3091">
        <ele>17</ele>
        <time>2023-11-11T08:11:08Z</time>
      </trkpt>
      <trkpt lat="47.27624" lon="-2.30855">
        <ele>18</ele>
        <time>2023-11-11T08:12:04Z</time>
      </trkpt>
      <trkpt lat="47.27589" lon="-2.30777">
        <ele>18</ele>
        <time>2023-11-11T08:13:29Z</time>
      </trkpt>
      <trkpt lat="47.27574" lon="-2.30721">
        <ele>18</ele>
        <time>2023-11-11T08:14:23Z</time>
      </trkpt>
      <trkpt lat="47.27563" lon="-2.30662">
        <ele>19</ele>
        <time>2023-11-11T08:15:19Z</time>
      </trkpt>
      <trkpt lat="47.27548" lon="-2.30608">
        <ele>18</ele>
        <time>2023-11-11T08:16:11Z</time>
      </trkpt>
      <trkpt lat="47.27544" lon="-2.3058">
        <ele>18</ele>
        <time>2023-11-11T08:16:37Z</time>
      </trkpt>
      <trkpt lat="47.27535" lon="-2.30556">
        <ele>18</ele>
        <time>2023-11-11T08:17:02Z</time>
      </trkpt>
      <trkpt lat="47.27514" lon="-2.30478">
        <ele>18</ele>
        <time>2023-11-11T08:18:18Z</time>
      </trkpt>
      <trkpt lat="47.27511" lon="-2.3045">
        <ele>19</ele>
        <time>2023-11-11T08:18:44Z</time>
      </trkpt>
      <trkpt lat="47.27472" lon="-2.30258">
        <ele>25</ele>
        <time>2023-11-11T08:21:45Z</time>
      </trkpt>
      <trkpt lat="47.27458" lon="-2.30208">
        <ele>26</ele>
        <time>2023-11-11T08:22:34Z</time>
      </trkpt>
      <trkpt lat="47.27457" lon="-2.30182">
        <ele>27</ele>
        <time>2023-11-11T08:22:58Z</time>
      </trkpt>
      <trkpt lat="47.27447" lon="-2.30126">
        <ele>27</ele>
        <time>2023-11-11T08:23:50Z</time>
      </trkpt>
      <trkpt lat="47.27423" lon="-2.30046">
        <ele>28</ele>
        <time>2023-11-11T08:25:10Z</time>
      </trkpt>
      <trkpt lat="47.274" lon="-2.29998">
        <ele>29</ele>
        <time>2023-11-11T08:26:03Z</time>
      </trkpt>
      <trkpt lat="47.27358" lon="-2.29896">
        <ele>30</ele>
        <time>2023-11-11T08:27:51Z</time>
      </trkpt>
      <trkpt lat="47.27296" lon="-2.29788">
        <ele>30</ele>
        <time>2023-11-11T08:29:59Z</time>
      </trkpt>
      <trkpt lat="47.27269" lon="-2.29678">
        <ele>31</ele>
        <time>2023-11-11T08:31:45Z</time>
      </trkpt>
      <trkpt lat="47.27267" lon="-2.29649">
        <ele>31</ele>
        <time>2023-11-11T08:32:11Z</time>
      </trkpt>
      <trkpt lat="47.27258" lon="-2.29623">
        <ele>31</ele>
        <time>2023-11-11T08:32:38Z</time>
      </trkpt>
      <trkpt lat="47.27245" lon="-2.29538">
        <ele>32</ele>
        <time>2023-11-11T08:33:56Z</time>
      </trkpt>
      <trkpt lat="47.27216" lon="-2.29465">
        <ele>30</ele>
        <time>2023-11-11T08:35:13Z</time>
      </trkpt>
      <trkpt lat="47.27211" lon="-2.2944">
        <ele>29</ele>
        <time>2023-11-11T08:35:37Z</time>
      </trkpt>
      <trkpt lat="47.27194" lon="-2.29385">
        <ele>28</ele>
        <time>2023-11-11T08:36:31Z</time>
      </trkpt>
      <trkpt lat="47.27182" lon="-2.29363">
        <ele>28</ele>
        <time>2023-11-11T08:36:57Z</time>
      </trkpt>
      <trkpt lat="47.27154" lon="-2.29322">
        <ele>29</ele>
        <time>2023-11-11T08:37:50Z</time>
      </trkpt>
      <trkpt lat="47.27129" lon="-2.29277">
        <ele>30</ele>
        <time>2023-11-11T08:38:42Z</time>
      </trkpt>
      <trkpt lat="47.27114" lon="-2.29259">
        <ele>30</ele>
        <time>2023-11-11T08:39:08Z</time>
      </trkpt>
      <trkpt lat="47.27109" lon="-2.29229">
        <ele>30</ele>
        <time>2023-11-11T08:39:36Z</time>
      </trkpt>
      <trkpt lat="47.27117" lon="-2.29197">
        <ele>30</ele>
        <time>2023-11-11T08:40:07Z</time>
      </trkpt>
      <trkpt lat="47.27119" lon="-2.2917">
        <ele>30</ele>
        <time>2023-11-11T08:40:32Z</time>
      </trkpt>
      <trkpt lat="47.27126" lon="-2.29144">
        <ele>30</ele>
        <time>2023-11-11T08:40:57Z</time>
      </trkpt>
      <trkpt lat="47.27141" lon="-2.29119">
        <ele>29</ele>
        <time>2023-11-11T08:41:27Z</time>
      </trkpt>
      <trkpt lat="47.27134" lon="-2.29092">
        <ele>29</ele>
        <time>2023-11-11T08:41:53Z</time>
      </trkpt>
      <trkpt lat="47.27059" lon="-2.29052">
        <ele>30</ele>
        <time>2023-11-11T08:43:40Z</time>
      </trkpt>
      <trkpt lat="47.27043" lon="-2.29038">
        <ele>30</ele>
        <time>2023-11-11T08:44:05Z</time>
      </trkpt>
      <trkpt lat="47.27032" lon="-2.29014">
        <ele>30</ele>
        <time>2023-11-11T08:44:31Z</time>
      </trkpt>
      <trkpt lat="47.26946" lon="-2.28991">
        <ele>31</ele>
        <time>2023-11-11T08:46:27Z</time>
      </trkpt>
      <trkpt lat="47.26926" lon="-2.28992">
        <ele>31</ele>
        <time>2023-11-11T08:46:54Z</time>
      </trkpt>
      <trkpt lat="47.26889" lon="-2.29011">
        <ele>31</ele>
        <time>2023-11-11T08:47:46Z</time>
      </trkpt>
      <trkpt lat="47.26873" lon="-2.29025">
        <ele>31</ele>
        <time>2023-11-11T08:48:11Z</time>
      </trkpt>
      <trkpt lat="47.2684" lon="-2.29062">
        <ele>32</ele>
        <time>2023-11-11T08:49:07Z</time>
      </trkpt>
      <trkpt lat="47.26792" lon="-2.29102">
        <ele>33</ele>
        <time>2023-11-11T08:50:20Z</time>
      </trkpt>
      <trkpt lat="47.26743" lon="-2.29155">
        <ele>34</ele>
        <time>2023-11-11T08:51:41Z</time>
      </trkpt>
      <trkpt lat="47.26628" lon="-2.29268">
        <ele>38</ele>
        <time>2023-11-11T08:54:46Z</time>
      </trkpt>
      <trkpt lat="47.26574" lon="-2.29302">
        <ele>39</ele>
        <time>2023-11-11T08:56:04Z</time>
      </trkpt>
      <trkpt lat="47.26519" lon="-2.29332">
        <ele>40</ele>
        <time>2023-11-11T08:57:22Z</time>
      </trkpt>
      <trkpt lat="47.26499" lon="-2.29341">
        <ele>40</ele>
        <time>2023-11-11T08:57:50Z</time>
      </trkpt>
      <trkpt lat="47.26481" lon="-2.29341">
        <ele>40</ele>
        <time>2023-11-11T08:58:14Z</time>
      </trkpt>
      <trkpt lat="47.2646" lon="-2.29336">
        <ele>40</ele>
        <time>2023-11-11T08:58:43Z</time>
      </trkpt>
      <trkpt lat="47.26385" lon="-2.29291">
        <ele>40</ele>
        <time>2023-11-11T09:00:31Z</time>
      </trkpt>
      <trkpt lat="47.26345" lon="-2.29273">
        <ele>39</ele>
        <time>2023-11-11T09:01:26Z</time>
      </trkpt>
      <trkpt lat="47.26324" lon="-2.29268">
        <ele>39</ele>
        <time>2023-11-11T09:01:55Z</time>
      </trkpt>
      <trkpt lat="47.26283" lon="-2.29285">
        <ele>38</ele>
        <time>2023-11-11T09:02:52Z</time>
      </trkpt>
      <trkpt lat="47.26249" lon="-2.29312">
        <ele>38</ele>
        <time>2023-11-11T09:03:43Z</time>
      </trkpt>
      <trkpt lat="47.26231" lon="-2.29323">
        <ele>37</ele>
        <time>2023-11-11T09:04:09Z</time>
      </trkpt>
      <trkpt lat="47.26178" lon="-2.29366">
        <ele>36</ele>
        <time>2023-11-11T09:05:30Z</time>
      </trkpt>
      <trkpt lat="47.26157" lon="-2.29363">
        <ele>35</ele>
        <time>2023-11-11T09:05:58Z</time>
      </trkpt>
      <trkpt lat="47.2614" lon="-2.2935">
        <ele>34</ele>
        <time>2023-11-11T09:06:24Z</time>
      </trkpt>
      <trkpt lat="47.26125" lon="-2.29439">
        <ele>33</ele>
        <time>2023-11-11T09:07:47Z</time>
      </trkpt>
      <trkpt lat="47.26128" lon="-2.29466">
        <ele>33</ele>
        <time>2023-11-11T09:08:12Z</time>
      </trkpt>
      <trkpt lat="47.26152" lon="-2.29514">
        <ele>34</ele>
        <time>2023-11-11T09:09:06Z</time>
      </trkpt>
      <trkpt lat="47.26168" lon="-2.29525">
        <ele>34</ele>
        <time>2023-11-11T09:09:29Z</time>
      </trkpt>
      <trkpt lat="47.26186" lon="-2.29544">
        <ele>35</ele>
        <time>2023-11-11T09:09:59Z</time>
      </trkpt>
      <trkpt lat="47.262" lon="-2.29567">
        <ele>36</ele>
        <time>2023-11-11T09:10:27Z</time>
      </trkpt>
      <trkpt lat="47.26183" lon="-2.29577">
        <ele>36</ele>
        <time>2023-11-11T09:10:51Z</time>
      </trkpt>
      <trkpt lat="47.26164" lon="-2.29582">
        <ele>35</ele>
        <time>2023-11-11T09:11:17Z</time>
      </trkpt>
      <trkpt lat="47.26143" lon="-2.29591">
        <ele>33</ele>
        <time>2023-11-11T09:11:46Z</time>
      </trkpt>
      <trkpt lat="47.26106" lon="-2.29612">
        <ele>31</ele>
        <time>2023-11-11T09:12:39Z</time>
      </trkpt>
      <trkpt lat="47.26002" lon="-2.29626">
        <ele>26</ele>
        <time>2023-11-11T09:14:58Z</time>
      </trkpt>
      <trkpt lat="47.2598" lon="-2.29639">
        <ele>25</ele>
        <time>2023-11-11T09:15:30Z</time>
      </trkpt>
      <trkpt lat="47.25962" lon="-2.29643">
        <ele>25</ele>
        <time>2023-11-11T09:15:54Z</time>
      </trkpt>
      <trkpt lat="47.25944" lon="-2.29622">
        <ele>25</ele>
        <time>2023-11-11T09:16:25Z</time>
      </trkpt>
      <trkpt lat="47.25936" lon="-2.29651">
        <ele>24</ele>
        <time>2023-11-11T09:16:53Z</time>
      </trkpt>
      <trkpt lat="47.25928" lon="-2.29711">
        <ele>22</ele>
        <time>2023-11-11T09:17:49Z</time>
      </trkpt>
      <trkpt lat="47.25927" lon="-2.29741">
        <ele>21</ele>
        <time>2023-11-11T09:18:16Z</time>
      </trkpt>
      <trkpt lat="47.25939" lon="-2.29765">
        <ele>21</ele>
        <time>2023-11-11T09:18:43Z</time>
      </trkpt>
      <trkpt lat="47.25946" lon="-2.29791">
        <ele>20</ele>
        <time>2023-11-11T09:19:08Z</time>
      </trkpt>
      <trkpt lat="47.25954" lon="-2.29847">
        <ele>19</ele>
        <time>2023-11-11T09:20:00Z</time>
      </trkpt>
      <trkpt lat="47.25961" lon="-2.29872">
        <ele>19</ele>
        <time>2023-11-11T09:20:24Z</time>
      </trkpt>
      <trkpt lat="47.25973" lon="-2.29896">
        <ele>19</ele>
        <time>2023-11-11T09:20:51Z</time>
      </trkpt>
      <trkpt lat="47.25988" lon="-2.29918">
        <ele>19</ele>
        <time>2023-11-11T09:21:20Z</time>
      </trkpt>
      <trkpt lat="47.25976" lon="-2.29938">
        <ele>19</ele>
        <time>2023-11-11T09:21:44Z</time>
      </trkpt>
      <trkpt lat="47.25967" lon="-2.30001">
        <ele>19</ele>
        <time>2023-11-11T09:22:42Z</time>
      </trkpt>
      <trkpt lat="47.25964" lon="-2.30061">
        <ele>19</ele>
        <time>2023-11-11T09:23:37Z</time>
      </trkpt>
      <trkpt lat="47.25965" lon="-2.30126">
        <ele>19</ele>
        <time>2023-11-11T09:24:36Z</time>
      </trkpt>
      <trkpt lat="47.25958" lon="-2.30152">
        <ele>19</ele>
        <time>2023-11-11T09:25:01Z</time>
      </trkpt>
      <trkpt lat="47.25939" lon="-2.30163">
        <ele>19</ele>
        <time>2023-11-11T09:25:28Z</time>
      </trkpt>
      <trkpt lat="47.25885" lon="-2.30209">
        <ele>19</ele>
        <time>2023-11-11T09:26:51Z</time>
      </trkpt>
      <trkpt lat="47.25888" lon="-2.30238">
        <ele>20</ele>
        <time>2023-11-11T09:27:18Z</time>
      </trkpt>
      <trkpt lat="47.25876" lon="-2.30262">
        <ele>20</ele>
        <time>2023-11-11T09:27:45Z</time>
      </trkpt>
      <trkpt lat="47.2586" lon="-2.30272">
        <ele>21</ele>
        <time>2023-11-11T09:28:08Z</time>
      </trkpt>
      <trkpt lat="47.2584" lon="-2.3026">
        <ele>21</ele>
        <time>2023-11-11T09:28:37Z</time>
      </trkpt>
      <trkpt lat="47.25803" lon="-2.3025">
        <ele>21</ele>
        <time>2023-11-11T09:29:27Z</time>
      </trkpt>
      <trkpt lat="47.25782" lon="-2.30235">
        <ele>21</ele>
        <time>2023-11-11T09:29:58Z</time>
      </trkpt>
      <trkpt lat="47.25727" lon="-2.30206">
        <ele>22</ele>
        <time>2023-11-11T09:31:16Z</time>
      </trkpt>
      <trkpt lat="47.25708" lon="-2.30208">
        <ele>22</ele>
        <time>2023-11-11T09:31:42Z</time>
      </trkpt>
      <trkpt lat="47.2569" lon="-2.30225">
        <ele>22</ele>
        <time>2023-11-11T09:32:10Z</time>
      </trkpt>
      <trkpt lat="47.25665" lon="-2.30273">
        <ele>22</ele>
        <time>2023-11-11T09:33:05Z</time>
      </trkpt>
      <trkpt lat="47.25648" lon="-2.30327">
        <ele>21</ele>
        <time>2023-11-11T09:33:59Z</time>
      </trkpt>
      <trkpt lat="47.2563" lon="-2.30337">
        <ele>22</ele>
        <time>2023-11-11T09:34:25Z</time>
      </trkpt>
      <trkpt lat="47.25624" lon="-2.30277">
        <ele>23</ele>
        <time>2023-11-11T09:35:19Z</time>
      </trkpt>
      <trkpt lat="47.25617" lon="-2.30245">
        <ele>23</ele>
        <time>2023-11-11T09:35:50Z</time>
      </trkpt>
      <trkpt lat="47.25607" lon="-2.30215">
        <ele>24</ele>
        <time>2023-11-11T09:36:20Z</time>
      </trkpt>
      <trkpt lat="47.25591" lon="-2.30195">
        <ele>25</ele>
        <time>2023-11-11T09:36:48Z</time>
      </trkpt>
      <trkpt lat="47.25571" lon="-2.30178">
        <ele>26</ele>
        <time>2023-11-11T09:37:19Z</time>
      </trkpt>
      <trkpt lat="47.25535" lon="-2.30193">
        <ele>26</ele>
        <time>2023-11-11T09:38:09Z</time>
      </trkpt>
      <trkpt lat="47.25513" lon="-2.30195">
        <ele>26</ele>
        <time>2023-11-11T09:38:38Z</time>
      </trkpt>
      <trkpt lat="47.25496" lon="-2.30203">
        <ele>27</ele>
        <time>2023-11-11T09:39:02Z</time>
      </trkpt>
      <trkpt lat="47.25486" lon="-2.30233">
        <ele>27</ele>
        <time>2023-11-11T09:39:32Z</time>
      </trkpt>
      <trkpt lat="47.25468" lon="-2.30246">
        <ele>28</ele>
        <time>2023-11-11T09:39:59Z</time>
      </trkpt>
      <trkpt lat="47.25427" lon="-2.30234">
        <ele>29</ele>
        <time>2023-11-11T09:40:55Z</time>
      </trkpt>
      <trkpt lat="47.25372" lon="-2.3021">
        <ele>28</ele>
        <time>2023-11-11T09:42:12Z</time>
      </trkpt>
      <trkpt lat="47.25349" lon="-2.30212">
        <ele>28</ele>
        <time>2023-11-11T09:42:42Z</time>
      </trkpt>
      <trkpt lat="47.25331" lon="-2.30208">
        <ele>28</ele>
        <time>2023-11-11T09:43:07Z</time>
      </trkpt>
      <trkpt lat="47.2529" lon="-2.30207">
        <ele>29</ele>
        <time>2023-11-11T09:44:01Z</time>
      </trkpt>
      <trkpt lat="47.25272" lon="-2.30198">
        <ele>29</ele>
        <time>2023-11-11T09:44:27Z</time>
      </trkpt>
      <trkpt lat="47.25253" lon="-2.30184">
        <ele>30</ele>
        <time>2023-11-11T09:44:55Z</time>
      </trkpt>
      <trkpt lat="47.25233" lon="-2.30177">
        <ele>31</ele>
        <time>2023-11-11T09:45:22Z</time>
      </trkpt>
      <trkpt lat="47.25201" lon="-2.30147">
        <ele>32</ele>
        <time>2023-11-11T09:46:13Z</time>
      </trkpt>
      <trkpt lat="47.25187" lon="-2.30124">
        <ele>33</ele>
        <time>2023-11-11T09:46:41Z</time>
      </trkpt>
      <trkpt lat="47.25168" lon="-2.30122">
        <ele>34</ele>
        <time>2023-11-11T09:47:06Z</time>
      </trkpt>
      <trkpt lat="47.25107" lon="-2.30134">
        <ele>35</ele>
        <time>2023-11-11T09:48:29Z</time>
      </trkpt>
      <trkpt lat="47.25085" lon="-2.30135">
        <ele>36</ele>
        <time>2023-11-11T09:48:58Z</time>
      </trkpt>
      <trkpt lat="47.25067" lon="-2.30125">
        <ele>36</ele>
        <time>2023-11-11T09:49:24Z</time>
      </trkpt>
      <trkpt lat="47.25069" lon="-2.30063">
        <ele>36</ele>
        <time>2023-11-11T09:50:20Z</time>
      </trkpt>
      <trkpt lat="47.25067" lon="-2.30092">
        <ele>36</ele>
        <time>2023-11-11T09:50:46Z</time>
      </trkpt>
      <trkpt lat="47.25068" lon="-2.30062">
        <ele>36</ele>
        <time>2023-11-11T09:51:13Z</time>
      </trkpt>
      <trkpt lat="47.2505" lon="-2.30054">
        <ele>36</ele>
        <time>2023-11-11T09:51:39Z</time>
      </trkpt>
      <trkpt lat="47.25009" lon="-2.30051">
        <ele>36</ele>
        <time>2023-11-11T09:52:33Z</time>
      </trkpt>
      <trkpt lat="47.24971" lon="-2.30055">
        <ele>37</ele>
        <time>2023-11-11T09:53:24Z</time>
      </trkpt>
      <trkpt lat="47.24915" lon="-2.30054">
        <ele>37</ele>
        <time>2023-11-11T09:54:39Z</time>
      </trkpt>
      <trkpt lat="47.249" lon="-2.30032">
        <ele>38</ele>
        <time>2023-11-11T09:55:07Z</time>
      </trkpt>
      <trkpt lat="47.24878" lon="-2.29939">
        <ele>37</ele>
        <time>2023-11-11T09:56:36Z</time>
      </trkpt>
      <trkpt lat="47.24867" lon="-2.29856">
        <ele>37</ele>
        <time>2023-11-11T09:57:53Z</time>
      </trkpt>
      <trkpt lat="47.24859" lon="-2.29832">
        <ele>37</ele>
        <time>2023-11-11T09:58:17Z</time>
      </trkpt>
      <trkpt lat="47.2484" lon="-2.29843">
        <ele>37</ele>
        <time>2023-11-11T09:58:44Z</time>
      </trkpt>
      <trkpt lat="47.248" lon="-2.29854">
        <ele>37</ele>
        <time>2023-11-11T09:59:39Z</time>
      </trkpt>
      <trkpt lat="47.24783" lon="-2.29868">
        <ele>37</ele>
        <time>2023-11-11T10:00:05Z</time>
      </trkpt>
      <trkpt lat="47.24766" lon="-2.29877">
        <ele>37</ele>
        <time>2023-11-11T10:00:29Z</time>
      </trkpt>
      <trkpt lat="47.2475" lon="-2.29893">
        <ele>37</ele>
        <time>2023-11-11T10:00:55Z</time>
      </trkpt>
      <trkpt lat="47.24727" lon="-2.29903">
        <ele>37</ele>
        <time>2023-11-11T10:01:27Z</time>
      </trkpt>
      <trkpt lat="47.24668" lon="-2.29922">
        <ele>37</ele>
        <time>2023-11-11T10:02:47Z</time>
      </trkpt>
      <trkpt lat="47.2463" lon="-2.29937">
        <ele>36</ele>
        <time>2023-11-11T10:03:40Z</time>
      </trkpt>
      <trkpt lat="47.2461" lon="-2.29941">
        <ele>36</ele>
        <time>2023-11-11T10:04:07Z</time>
      </trkpt>
      <trkpt lat="47.24592" lon="-2.29937">
        <ele>36</ele>
        <time>2023-11-11T10:04:31Z</time>
      </trkpt>
      <trkpt lat="47.24576" lon="-2.29918">
        <ele>36</ele>
        <time>2023-11-11T10:04:58Z</time>
      </trkpt>
      <trkpt lat="47.24553" lon="-2.29872">
        <ele>36</ele>
        <time>2023-11-11T10:05:50Z</time>
      </trkpt>
      <trkpt lat="47.24515" lon="-2.29857">
        <ele>35</ele>
        <time>2023-11-11T10:06:43Z</time>
      </trkpt>
      <trkpt lat="47.24496" lon="-2.29845">
        <ele>35</ele>
        <time>2023-11-11T10:07:10Z</time>
      </trkpt>
      <trkpt lat="47.24482" lon="-2.29828">
        <ele>35</ele>
        <time>2023-11-11T10:07:34Z</time>
      </trkpt>
      <trkpt lat="47.24468" lon="-2.29808">
        <ele>34</ele>
        <time>2023-11-11T10:08:00Z</time>
      </trkpt>
      <trkpt lat="47.24455" lon="-2.29751">
        <ele>34</ele>
        <time>2023-11-11T10:08:55Z</time>
      </trkpt>
      <trkpt lat="47.24445" lon="-2.29727">
        <ele>34</ele>
        <time>2023-11-11T10:09:20Z</time>
      </trkpt>
      <trkpt lat="47.24437" lon="-2.29699">
        <ele>34</ele>
        <time>2023-11-11T10:09:48Z</time>
      </trkpt>
      <trkpt lat="47.24416" lon="-2.29693">
        <ele>34</ele>
        <time>2023-11-11T10:10:16Z</time>
      </trkpt>
      <trkpt lat="47.244" lon="-2.29707">
        <ele>34</ele>
        <time>2023-11-11T10:10:41Z</time>
      </trkpt>
      <trkpt lat="47.24388" lon="-2.29731">
        <ele>33</ele>
        <time>2023-11-11T10:11:08Z</time>
      </trkpt>
      <trkpt lat="47.2437" lon="-2.2978">
        <ele>33</ele>
        <time>2023-11-11T10:11:59Z</time>
      </trkpt>
      <trkpt lat="47.24355" lon="-2.298">
        <ele>34</ele>
        <time>2023-11-11T10:12:26Z</time>
      </trkpt>
      <trkpt lat="47.24337" lon="-2.29809">
        <ele>34</ele>
        <time>2023-11-11T10:12:51Z</time>
      </trkpt>
      <trkpt lat="47.24322" lon="-2.29824">
        <ele>34</ele>
        <time>2023-11-11T10:13:15Z</time>
      </trkpt>
      <trkpt lat="47.24322" lon="-2.29854">
        <ele>34</ele>
        <time>2023-11-11T10:13:43Z</time>
      </trkpt>
      <trkpt lat="47.24316" lon="-2.2988">
        <ele>34</ele>
        <time>2023-11-11T10:14:07Z</time>
      </trkpt>
      <trkpt lat="47.24301" lon="-2.29897">
        <ele>34</ele>
        <time>2023-11-11T10:14:33Z</time>
      </trkpt>
      <trkpt lat="47.24265" lon="-2.29925">
        <ele>34</ele>
        <time>2023-11-11T10:15:27Z</time>
      </trkpt>
      <trkpt lat="47.24248" lon="-2.29947">
        <ele>34</ele>
        <time>2023-11-11T10:15:57Z</time>
      </trkpt>
      <trkpt lat="47.24208" lon="-2.29969">
        <ele>36</ele>
        <time>2023-11-11T10:16:54Z</time>
      </trkpt>
      <trkpt lat="47.24165" lon="-2.2998">
        <ele>39</ele>
        <time>2023-11-11T10:17:52Z</time>
      </trkpt>
      <trkpt lat="47.24154" lon="-2.29955">
        <ele>40</ele>
        <time>2023-11-11T10:18:19Z</time>
      </trkpt>
      <trkpt lat="47.24161" lon="-2.29925">
        <ele>41</ele>
        <time>2023-11-11T10:18:48Z</time>
      </trkpt>
      <trkpt lat="47.24154" lon="-2.29869">
        <ele>43</ele>
        <time>2023-11-11T10:19:40Z</time>
      </trkpt>
      <trkpt lat="47.24155" lon="-2.29839">
        <ele>44</ele>
        <time>2023-11-11T10:20:07Z</time>
      </trkpt>
      <trkpt lat="47.24116" lon="-2.29849">
        <ele>43</ele>
        <time>2023-11-11T10:21:00Z</time>
      </trkpt>
      <trkpt lat="47.24094" lon="-2.2985">
        <ele>43</ele>
        <time>2023-11-11T10:21:29Z</time>
      </trkpt>
      <trkpt lat="47.24078" lon="-2.29869">
        <ele>42</ele>
        <time>2023-11-11T10:21:57Z</time>
      </trkpt>
      <trkpt lat="47.24071" lon="-2.29924">
        <ele>40</ele>
        <time>2023-11-11T10:22:47Z</time>
      </trkpt>
      <trkpt lat="47.24062" lon="-2.29948">
        <ele>39</ele>
        <time>2023-11-11T10:23:12Z</time>
      </trkpt>
      <trkpt lat="47.24047" lon="-2.29967">
        <ele>39</ele>
        <time>2023-11-11T10:23:39Z</time>
      </trkpt>
      <trkpt lat="47.24028" lon="-2.3002">
        <ele>37</ele>
        <time>2023-11-11T10:24:33Z</time>
      </trkpt>
      <trkpt lat="47.24011" lon="-2.30028">
        <ele>37</ele>
        <time>2023-11-11T10:24:57Z</time>
      </trkpt>
      <trkpt lat="47.24" lon="-2.3005">
        <ele>36</ele>
        <time>2023-11-11T10:25:21Z</time>
      </trkpt>
      <trkpt lat="47.23997" lon="-2.30076">
        <ele>36</ele>
        <time>2023-11-11T10:25:45Z</time>
      </trkpt>
      <trkpt lat="47.23986" lon="-2.30103">
        <ele>35</ele>
        <time>2023-11-11T10:26:14Z</time>
      </trkpt>
      <trkpt lat="47.2398" lon="-2.30132">
        <ele>34</ele>
        <time>2023-11-11T10:26:41Z</time>
      </trkpt>
      <trkpt lat="47.23994" lon="-2.30152">
        <ele>35</ele>
        <time>2023-11-11T10:27:07Z</time>
      </trkpt>
      <trkpt lat="47.24011" lon="-2.30163">
        <ele>35</ele>
        <time>2023-11-11T10:27:32Z</time>
      </trkpt>
      <trkpt lat="47.24028" lon="-2.30178">
        <ele>35</ele>
        <time>2023-11-11T10:27:59Z</time>
      </trkpt>
      <trkpt lat="47.24036" lon="-2.30206">
        <ele>34</ele>
        <time>2023-11-11T10:28:26Z</time>
      </trkpt>
      <trkpt lat="47.24026" lon="-2.30293">
        <ele>30</ele>
        <time>2023-11-11T10:29:46Z</time>
      </trkpt>
      <trkpt lat="47.24014" lon="-2.30318">
        <ele>30</ele>
        <time>2023-11-11T10:30:14Z</time>
      </trkpt>
      <trkpt lat="47.23938" lon="-2.30414">
        <ele>27</ele>
        <time>2023-11-11T10:32:27Z</time>
      </trkpt>
      <trkpt lat="47.23926" lon="-2.30441">
        <ele>27</ele>
        <time>2023-11-11T10:32:57Z</time>
      </trkpt>
      <trkpt lat="47.23928" lon="-2.30472">
        <ele>26</ele>
        <time>2023-11-11T10:33:25Z</time>
      </trkpt>
      <trkpt lat="47.23938" lon="-2.30494">
        <ele>26</ele>
        <time>2023-11-11T10:33:49Z</time>
      </trkpt>
      <trkpt lat="47.23945" lon="-2.30521">
        <ele>26</ele>
        <time>2023-11-11T10:34:15Z</time>
      </trkpt>
      <trkpt lat="47.23947" lon="-2.30556">
        <ele>25</ele>
        <time>2023-11-11T10:34:47Z</time>
      </trkpt>
      <trkpt lat="47.23934" lon="-2.30578">
        <ele>24</ele>
        <time>2023-11-11T10:35:13Z</time>
      </trkpt>
      <trkpt lat="47.23915" lon="-2.30579">
        <ele>24</ele>
        <time>2023-11-11T10:35:39Z</time>
      </trkpt>
      <trkpt lat="47.23895" lon="-2.30572">
        <ele>24</ele>
        <time>2023-11-11T10:36:06Z</time>
      </trkpt>
      <trkpt lat="47.23869" lon="-2.30531">
        <ele>23</ele>
        <time>2023-11-11T10:36:57Z</time>
      </trkpt>
      <trkpt lat="47.23852" lon="-2.30548">
        <ele>23</ele>
        <time>2023-11-11T10:37:24Z</time>
      </trkpt>
      <trkpt lat="47.23833" lon="-2.30552">
        <ele>22</ele>
        <time>2023-11-11T10:37:50Z</time>
      </trkpt>
      <trkpt lat="47.23816" lon="-2.30534">
        <ele>19</ele>
        <time>2023-11-11T10:38:18Z</time>
      </trkpt>
      <trkpt lat="47.23805" lon="-2.3048">
        <ele>17</ele>
        <time>2023-11-11T10:39:09Z</time>
      </trkpt>
      <trkpt lat="47.23807" lon="-2.30453">
        <ele>17</ele>
        <time>2023-11-11T10:39:34Z</time>
      </trkpt>
      <trkpt lat="47.23818" lon="-2.3043">
        <ele>19</ele>
        <time>2023-11-11T10:39:59Z</time>
      </trkpt>
      <trkpt lat="47.23818" lon="-2.304">
        <ele>19</ele>
        <time>2023-11-11T10:40:26Z</time>
      </trkpt>
      <trkpt lat="47.2377" lon="-2.30274">
        <ele>15</ele>
        <time>2023-11-11T10:42:37Z</time>
      </trkpt>
      <trkpt lat="47.23743" lon="-2.30232">
        <ele>15</ele>
        <time>2023-11-11T10:43:29Z</time>
      </trkpt>
      <trkpt lat="47.23705" lon="-2.30165">
        <ele>17</ele>
        <time>2023-11-11T10:44:49Z</time>
      </trkpt>
      <trkpt lat="47.23694" lon="-2.30138">
        <ele>18</ele>
        <time>2023-11-11T10:45:17Z</time>
      </trkpt>
      <trkpt lat="47.23713" lon="-2.30153">
        <ele>18</ele>
        <time>2023-11-11T10:45:46Z</time>
      </trkpt>
      <trkpt lat="47.23725" lon="-2.3018">
        <ele>18</ele>
        <time>2023-11-11T10:46:15Z</time>
      </trkpt>
      <trkpt lat="47.23689" lon="-2.30071">
        <ele>23</ele>
        <time>2023-11-11T10:48:05Z</time>
      </trkpt>
      <trkpt lat="47.23707" lon="-2.3006">
        <ele>24</ele>
        <time>2023-11-11T10:48:31Z</time>
      </trkpt>
      <trkpt lat="47.23749" lon="-2.30084">
        <ele>24</ele>
        <time>2023-11-11T10:49:31Z</time>
      </trkpt>
      <trkpt lat="47.23769" lon="-2.3009">
        <ele>25</ele>
        <time>2023-11-11T10:49:58Z</time>
      </trkpt>
      <trkpt lat="47.23788" lon="-2.30083">
        <ele>26</ele>
        <time>2023-11-11T10:50:24Z</time>
      </trkpt>
      <trkpt lat="47.23842" lon="-2.30049">
        <ele>29</ele>
        <time>2023-11-11T10:51:43Z</time>
      </trkpt>
      <trkpt lat="47.23842" lon="-2.30022">
        <ele>30</ele>
        <time>2023-11-11T10:52:07Z</time>
      </trkpt>
      <trkpt lat="47.23814" lon="-2.29875">
        <ele>32</ele>
        <time>2023-11-11T10:54:26Z</time>
      </trkpt>
      <trkpt lat="47.23808" lon="-2.29821">
        <ele>33</ele>
        <time>2023-11-11T10:55:15Z</time>
      </trkpt>
      <trkpt lat="47.2381" lon="-2.29708">
        <ele>32</ele>
        <time>2023-11-11T10:56:58Z</time>
      </trkpt>
      <trkpt lat="47.23814" lon="-2.29681">
        <ele>33</ele>
        <time>2023-11-11T10:57:23Z</time>
      </trkpt>
      <trkpt lat="47.23817" lon="-2.29625">
        <ele>34</ele>
        <time>2023-11-11T10:58:14Z</time>
      </trkpt>
      <trkpt lat="47.23819" lon="-2.29505">
        <ele>32</ele>
        <time>2023-11-11T11:00:02Z</time>
      </trkpt>
      <trkpt lat="47.23801" lon="-2.29491">
        <ele>31</ele>
        <time>2023-11-11T11:00:29Z</time>
      </trkpt>
      <trkpt lat="47.2376" lon="-2.29497">
        <ele>29</ele>
        <time>2023-11-11T11:01:24Z</time>
      </trkpt>
      <trkpt lat="47.23741" lon="-2.29501">
        <ele>29</ele>
        <time>2023-11-11T11:01:50Z</time>
      </trkpt>
      <trkpt lat="47.23724" lon="-2.29516">
        <ele>28</ele>
        <time>2023-11-11T11:02:16Z</time>
      </trkpt>
      <trkpt lat="47.23703" lon="-2.29521">
        <ele>27</ele>
        <time>2023-11-11T11:02:45Z</time>
      </trkpt>
      <trkpt lat="47.23684" lon="-2.29529">
        <ele>26</ele>
        <time>2023-11-11T11:03:11Z</time>
      </trkpt>
      <trkpt lat="47.23669" lon="-2.29546">
        <ele>26</ele>
        <time>2023-11-11T11:03:37Z</time>
      </trkpt>
      <trkpt lat="47.23656" lon="-2.29569">
        <ele>25</ele>
        <time>2023-11-11T11:04:04Z</time>
      </trkpt>
      <trkpt lat="47.2364" lon="-2.29628">
        <ele>25</ele>
        <time>2023-11-11T11:05:01Z</time>
      </trkpt>
      <trkpt lat="47.23619" lon="-2.29626">
        <ele>25</ele>
        <time>2023-11-11T11:05:29Z</time>
      </trkpt>
      <trkpt lat="47.23599" lon="-2.2962">
        <ele>24</ele>
        <time>2023-11-11T11:05:57Z</time>
      </trkpt>
      <trkpt lat="47.23584" lon="-2.29599">
        <ele>23</ele>
        <time>2023-11-11T11:06:24Z</time>
      </trkpt>
      <trkpt lat="47.23561" lon="-2.29594">
        <ele>19</ele>
        <time>2023-11-11T11:06:55Z</time>
      </trkpt>
      <trkpt lat="47.23571" lon="-2.29563">
        <ele>20</ele>
        <time>2023-11-11T11:07:26Z</time>
      </trkpt>
      <trkpt lat="47.23573" lon="-2.29534">
        <ele>21</ele>
        <time>2023-11-11T11:07:53Z</time>
      </trkpt>
      <trkpt lat="47.2359" lon="-2.29519">
        <ele>24</ele>
        <time>2023-11-11T11:08:19Z</time>
      </trkpt>
      <trkpt lat="47.23589" lon="-2.29458">
        <ele>25</ele>
        <time>2023-11-11T11:09:14Z</time>
      </trkpt>
      <trkpt lat="47.23586" lon="-2.2943">
        <ele>26</ele>
        <time>2023-11-11T11:09:40Z</time>
      </trkpt>
      <trkpt lat="47.23586" lon="-2.29259">
        <ele>18</ele>
        <time>2023-11-11T11:12:15Z</time>
      </trkpt>
      <trkpt lat="47.23591" lon="-2.29227">
        <ele>17</ele>
        <time>2023-11-11T11:12:45Z</time>
      </trkpt>
      <trkpt lat="47.23605" lon="-2.2921">
        <ele>18</ele>
        <time>2023-11-11T11:13:09Z</time>
      </trkpt>
      <trkpt lat="47.23666" lon="-2.29195">
        <ele>24</ele>
        <time>2023-11-11T11:14:32Z</time>
      </trkpt>
      <trkpt lat="47.23744" lon="-2.29164">
        <ele>29</ele>
        <time>2023-11-11T11:16:19Z</time>
      </trkpt>
      <trkpt lat="47.23779" lon="-2.29138">
        <ele>29</ele>
        <time>2023-11-11T11:17:12Z</time>
      </trkpt>
      <trkpt lat="47.23793" lon="-2.29119">
        <ele>29</ele>
        <time>2023-11-11T11:17:37Z</time>
      </trkpt>
      <trkpt lat="47.23797" lon="-2.29089">
        <ele>29</ele>
        <time>2023-11-11T11:18:05Z</time>
      </trkpt>
      <trkpt lat="47.23797" lon="-2.29056">
        <ele>27</ele>
        <time>2023-11-11T11:18:35Z</time>
      </trkpt>
      <trkpt lat="47.23801" lon="-2.29028">
        <ele>26</ele>
        <time>2023-11-11T11:19:01Z</time>
      </trkpt>
      <trkpt lat="47.238" lon="-2.28999">
        <ele>24</ele>
        <time>2023-11-11T11:19:27Z</time>
      </trkpt>
      <trkpt lat="47.23817" lon="-2.28918">
        <ele>24</ele>
        <time>2023-11-11T11:20:44Z</time>
      </trkpt>
      <trkpt lat="47.23796" lon="-2.28909">
        <ele>20</ele>
        <time>2023-11-11T11:21:13Z</time>
      </trkpt>
      <trkpt lat="47.23777" lon="-2.28905">
        <ele>18</ele>
        <time>2023-11-11T11:21:38Z</time>
      </trkpt>
      <trkpt lat="47.23773" lon="-2.28877">
        <ele>16</ele>
        <time>2023-11-11T11:22:04Z</time>
      </trkpt>
      <trkpt lat="47.23766" lon="-2.28761">
        <ele>16</ele>
        <time>2023-11-11T11:23:50Z</time>
      </trkpt>
      <trkpt lat="47.2376" lon="-2.2873">
        <ele>16</ele>
        <time>2023-11-11T11:24:19Z</time>
      </trkpt>
      <trkpt lat="47.2376" lon="-2.28703">
        <ele>15</ele>
        <time>2023-11-11T11:24:44Z</time>
      </trkpt>
      <trkpt lat="47.23788" lon="-2.28629">
        <ele>17</ele>
        <time>2023-11-11T11:26:00Z</time>
      </trkpt>
      <trkpt lat="47.23782" lon="-2.2857">
        <ele>15</ele>
        <time>2023-11-11T11:26:54Z</time>
      </trkpt>
      <trkpt lat="47.23784" lon="-2.28543">
        <ele>15</ele>
        <time>2023-11-11T11:27:19Z</time>
      </trkpt>
      <trkpt lat="47.23778" lon="-2.28515">
        <ele>13</ele>
        <time>2023-11-11T11:27:46Z</time>
      </trkpt>
      <trkpt lat="47.23765" lon="-2.28494">
        <ele>11</ele>
        <time>2023-11-11T11:28:11Z</time>
      </trkpt>
      <trkpt lat="47.23756" lon="-2.28469">
        <ele>9</ele>
        <time>2023-11-11T11:28:37Z</time>
      </trkpt>
      <trkpt lat="47.23766" lon="-2.28443">
        <ele>11</ele>
        <time>2023-11-11T11:29:04Z</time>
      </trkpt>
      <trkpt lat="47.23771" lon="-2.28416">
        <ele>12</ele>
        <time>2023-11-11T11:29:29Z</time>
      </trkpt>
      <trkpt lat="47.23766" lon="-2.28383">
        <ele>10</ele>
        <time>2023-11-11T11:30:00Z</time>
      </trkpt>
      <trkpt lat="47.23791" lon="-2.28338">
        <ele>13</ele>
        <time>2023-11-11T11:30:53Z</time>
      </trkpt>
      <trkpt lat="47.23823" lon="-2.28262">
        <ele>16</ele>
        <time>2023-11-11T11:32:14Z</time>
      </trkpt>
      <trkpt lat="47.23818" lon="-2.28209">
        <ele>13</ele>
        <time>2023-11-11T11:33:02Z</time>
      </trkpt>
      <trkpt lat="47.23819" lon="-2.28156">
        <ele>11</ele>
        <time>2023-11-11T11:33:50Z</time>
      </trkpt>
      <trkpt lat="47.23822" lon="-2.28127">
        <ele>10</ele>
        <time>2023-11-11T11:34:17Z</time>
      </trkpt>
      <trkpt lat="47.23813" lon="-2.28102">
        <ele>7</ele>
        <time>2023-11-11T11:34:43Z</time>
      </trkpt>
      <trkpt lat="47.23805" lon="-2.28042">
        <ele>6</ele>
        <time>2023-11-11T11:35:38Z</time>
      </trkpt>
      <trkpt lat="47.23818" lon="-2.28066">
        <ele>7</ele>
        <time>2023-11-11T11:36:06Z</time>
      </trkpt>
      <trkpt lat="47.23824" lon="-2.28097">
        <ele>8</ele>
        <time>2023-11-11T11:36:35Z</time>
      </trkpt>
      <trkpt lat="47.23817" lon="-2.2819">
        <ele>12</ele>
        <time>2023-11-11T11:38:00Z</time>
      </trkpt>
      <trkpt lat="47.23817" lon="-2.28218">
        <ele>13</ele>
        <time>2023-11-11T11:38:25Z</time>
      </trkpt>
      <trkpt lat="47.23821" lon="-2.28245">
        <ele>15</ele>
        <time>2023-11-11T11:38:50Z</time>
      </trkpt>
      <trkpt lat="47.23822" lon="-2.28274">
        <ele>16</ele>
        <time>2023-11-11T11:39:16Z</time>
      </trkpt>
      <trkpt lat="47.23808" lon="-2.28297">
        <ele>15</ele>
        <time>2023-11-11T11:39:44Z</time>
      </trkpt>
      <trkpt lat="47.238" lon="-2.28324">
        <ele>15</ele>
        <time>2023-11-11T11:40:11Z</time>
      </trkpt>
      <trkpt lat="47.2379" lon="-2.28347">
        <ele>13</ele>
        <time>2023-11-11T11:40:36Z</time>
      </trkpt>
      <trkpt lat="47.23775" lon="-2.28367">
        <ele>11</ele>
        <time>2023-11-11T11:41:03Z</time>
      </trkpt>
      <trkpt lat="47.23769" lon="-2.28395">
        <ele>11</ele>
        <time>2023-11-11T11:41:29Z</time>
      </trkpt>
      <trkpt lat="47.23771" lon="-2.2843">
        <ele>12</ele>
        <time>2023-11-11T11:42:01Z</time>
      </trkpt>
      <trkpt lat="47.23759" lon="-2.28458">
        <ele>10</ele>
        <time>2023-11-11T11:42:31Z</time>
      </trkpt>
      <trkpt lat="47.23761" lon="-2.28485">
        <ele>10</ele>
        <time>2023-11-11T11:42:56Z</time>
      </trkpt>
      <trkpt lat="47.23776" lon="-2.28509">
        <ele>13</ele>
        <time>2023-11-11T11:43:25Z</time>
      </trkpt>
      <trkpt lat="47.23782" lon="-2.28534">
        <ele>14</ele>
        <time>2023-11-11T11:43:49Z</time>
      </trkpt>
      <trkpt lat="47.23786" lon="-2.28599">
        <ele>16</ele>
        <time>2023-11-11T11:44:49Z</time>
      </trkpt>
      <trkpt lat="47.23792" lon="-2.28625">
        <ele>17</ele>
        <time>2023-11-11T11:45:13Z</time>
      </trkpt>
      <trkpt lat="47.2378" lon="-2.28653">
        <ele>17</ele>
        <time>2023-11-11T11:45:43Z</time>
      </trkpt>
      <trkpt lat="47.23772" lon="-2.28679">
        <ele>16</ele>
        <time>2023-11-11T11:46:09Z</time>
      </trkpt>
      <trkpt lat="47.23766" lon="-2.2871">
        <ele>16</ele>
        <time>2023-11-11T11:46:39Z</time>
      </trkpt>
      <trkpt lat="47.23764" lon="-2.28767">
        <ele>16</ele>
        <time>2023-11-11T11:47:30Z</time>
      </trkpt>
      <trkpt lat="47.2377" lon="-2.28853">
        <ele>15</ele>
        <time>2023-11-11T11:48:49Z</time>
      </trkpt>
      <trkpt lat="47.23775" lon="-2.28879">
        <ele>17</ele>
        <time>2023-11-11T11:49:13Z</time>
      </trkpt>
      <trkpt lat="47.23777" lon="-2.28909">
        <ele>18</ele>
        <time>2023-11-11T11:49:40Z</time>
      </trkpt>
      <trkpt lat="47.23795" lon="-2.28912">
        <ele>20</ele>
        <time>2023-11-11T11:50:05Z</time>
      </trkpt>
      <trkpt lat="47.23812" lon="-2.28924">
        <ele>23</ele>
        <time>2023-11-11T11:50:30Z</time>
      </trkpt>
      <trkpt lat="47.23795" lon="-2.2904">
        <ele>26</ele>
        <time>2023-11-11T11:52:17Z</time>
      </trkpt>
      <trkpt lat="47.23795" lon="-2.29098">
        <ele>29</ele>
        <time>2023-11-11T11:53:10Z</time>
      </trkpt>
      <trkpt lat="47.23787" lon="-2.29124">
        <ele>29</ele>
        <time>2023-11-11T11:53:36Z</time>
      </trkpt>
      <trkpt lat="47.23772" lon="-2.29149">
        <ele>30</ele>
        <time>2023-11-11T11:54:06Z</time>
      </trkpt>
      <trkpt lat="47.23736" lon="-2.29171">
        <ele>29</ele>
        <time>2023-11-11T11:54:58Z</time>
      </trkpt>
      <trkpt lat="47.23697" lon="-2.29191">
        <ele>26</ele>
        <time>2023-11-11T11:55:53Z</time>
      </trkpt>
      <trkpt lat="47.23675" lon="-2.29194">
        <ele>25</ele>
        <time>2023-11-11T11:56:22Z</time>
      </trkpt>
      <trkpt lat="47.23616" lon="-2.29212">
        <ele>19</ele>
        <time>2023-11-11T11:57:43Z</time>
      </trkpt>
      <trkpt lat="47.236" lon="-2.29225">
        <ele>18</ele>
        <time>2023-11-11T11:58:07Z</time>
      </trkpt>
      <trkpt lat="47.2359" lon="-2.2925">
        <ele>18</ele>
        <time>2023-11-11T11:58:34Z</time>
      </trkpt>
      <trkpt lat="47.23591" lon="-2.29279">
        <ele>20</ele>
        <time>2023-11-11T11:59:00Z</time>
      </trkpt>
      <trkpt lat="47.23589" lon="-2.29305">
        <ele>21</ele>
        <time>2023-11-11T11:59:24Z</time>
      </trkpt>
      <trkpt lat="47.23591" lon="-2.29334">
        <ele>23</ele>
        <time>2023-11-11T11:59:50Z</time>
      </trkpt>
      <trkpt lat="47.23589" lon="-2.29362">
        <ele>24</ele>
        <time>2023-11-11T12:00:16Z</time>
      </trkpt>
      <trkpt lat="47.23593" lon="-2.29389">
        <ele>25</ele>
        <time>2023-11-11T12:00:41Z</time>
      </trkpt>
      <trkpt lat="47.2359" lon="-2.29448">
        <ele>25</ele>
        <time>2023-11-11T12:01:34Z</time>
      </trkpt>
      <trkpt lat="47.23593" lon="-2.29533">
        <ele>23</ele>
        <time>2023-11-11T12:02:51Z</time>
      </trkpt>
      <trkpt lat="47.23566" lon="-2.29577">
        <ele>19</ele>
        <time>2023-11-11T12:03:45Z</time>
      </trkpt>
      <trkpt lat="47.23526" lon="-2.29592">
        <ele>13</ele>
        <time>2023-11-11T12:04:40Z</time>
      </trkpt>
      <trkpt lat="47.23509" lon="-2.29602">
        <ele>10</ele>
        <time>2023-11-11T12:05:05Z</time>
      </trkpt>
      <trkpt lat="47.23504" lon="-2.29629">
        <ele>10</ele>
        <time>2023-11-11T12:05:30Z</time>
      </trkpt>
      <trkpt lat="47.23511" lon="-2.2966">
        <ele>13</ele>
        <time>2023-11-11T12:05:59Z</time>
      </trkpt>
      <trkpt lat="47.23513" lon="-2.29693">
        <ele>16</ele>
        <time>2023-11-11T12:06:30Z</time>
      </trkpt>
      <trkpt lat="47.23509" lon="-2.2972">
        <ele>17</ele>
        <time>2023-11-11T12:06:55Z</time>
      </trkpt>
      <trkpt lat="47.23496" lon="-2.29742">
        <ele>17</ele>
        <time>2023-11-11T12:07:21Z</time>
      </trkpt>
      <trkpt lat="47.23488" lon="-2.29772">
        <ele>19</ele>
        <time>2023-11-11T12:07:50Z</time>
      </trkpt>
      <trkpt lat="47.23474" lon="-2.29795">
        <ele>19</ele>
        <time>2023-11-11T12:08:18Z</time>
      </trkpt>
      <trkpt lat="47.23466" lon="-2.29823">
        <ele>21</ele>
        <time>2023-11-11T12:08:46Z</time>
      </trkpt>
      <trkpt lat="47.23462" lon="-2.2985">
        <ele>22</ele>
        <time>2023-11-11T12:09:11Z</time>
      </trkpt>
      <trkpt lat="47.23444" lon="-2.29859">
        <ele>19</ele>
        <time>2023-11-11T12:09:36Z</time>
      </trkpt>
      <trkpt lat="47.2341" lon="-2.29834">
        <ele>15</ele>
        <time>2023-11-11T12:10:27Z</time>
      </trkpt>
      <trkpt lat="47.23393" lon="-2.29842">
        <ele>13</ele>
        <time>2023-11-11T12:10:51Z</time>
      </trkpt>
      <trkpt lat="47.23377" lon="-2.29854">
        <ele>10</ele>
        <time>2023-11-11T12:11:15Z</time>
      </trkpt>
      <trkpt lat="47.23357" lon="-2.29843">
        <ele>8</ele>
        <time>2023-11-11T12:11:43Z</time>
      </trkpt>
      <trkpt lat="47.23368" lon="-2.29867">
        <ele>8</ele>
        <time>2023-11-11T12:12:09Z</time>
      </trkpt>
      <trkpt lat="47.23396" lon="-2.29901">
        <ele>10</ele>
        <time>2023-11-11T12:12:58Z</time>
      </trkpt>
      <trkpt lat="47.23446" lon="-2.2994">
        <ele>14</ele>
        <time>2023-11-11T12:14:13Z</time>
      </trkpt>
      <trkpt lat="47.23465" lon="-2.2996">
        <ele>15</ele>
        <time>2023-11-11T12:14:44Z</time>
      </trkpt>
      <trkpt lat="47.23476" lon="-2.29984">
        <ele>14</ele>
        <time>2023-11-11T12:15:11Z</time>
      </trkpt>
      <trkpt lat="47.23513" lon="-2.30001">
        <ele>18</ele>
        <time>2023-11-11T12:16:02Z</time>
      </trkpt>
      <trkpt lat="47.2353" lon="-2.30012">
        <ele>18</ele>
        <time>2023-11-11T12:16:27Z</time>
      </trkpt>
      <trkpt lat="47.23546" lon="-2.3003">
        <ele>18</ele>
        <time>2023-11-11T12:16:54Z</time>
      </trkpt>
      <trkpt lat="47.23559" lon="-2.30084">
        <ele>13</ele>
        <time>2023-11-11T12:17:46Z</time>
      </trkpt>
      <trkpt lat="47.23571" lon="-2.30105">
        <ele>12</ele>
        <time>2023-11-11T12:18:11Z</time>
      </trkpt>
      <trkpt lat="47.23591" lon="-2.30099">
        <ele>15</ele>
        <time>2023-11-11T12:18:38Z</time>
      </trkpt>
      <trkpt lat="47.2361" lon="-2.30099">
        <ele>16</ele>
        <time>2023-11-11T12:19:03Z</time>
      </trkpt>
      <trkpt lat="47.2365" lon="-2.30124">
        <ele>16</ele>
        <time>2023-11-11T12:20:01Z</time>
      </trkpt>
      <trkpt lat="47.23673" lon="-2.30126">
        <ele>17</ele>
        <time>2023-11-11T12:20:32Z</time>
      </trkpt>
      <trkpt lat="47.23692" lon="-2.30123">
        <ele>19</ele>
        <time>2023-11-11T12:20:58Z</time>
      </trkpt>
      <trkpt lat="47.23702" lon="-2.30153">
        <ele>17</ele>
        <time>2023-11-11T12:21:28Z</time>
      </trkpt>
      <trkpt lat="47.23707" lon="-2.30182">
        <ele>16</ele>
        <time>2023-11-11T12:21:55Z</time>
      </trkpt>
      <trkpt lat="47.23728" lon="-2.30259">
        <ele>12</ele>
        <time>2023-11-11T12:23:10Z</time>
      </trkpt>
      <trkpt lat="47.23741" lon="-2.30286">
        <ele>12</ele>
        <time>2023-11-11T12:23:40Z</time>
      </trkpt>
      <trkpt lat="47.23748" lon="-2.3035">
        <ele>10</ele>
        <time>2023-11-11T12:24:39Z</time>
      </trkpt>
      <trkpt lat="47.23764" lon="-2.30372">
        <ele>12</ele>
        <time>2023-11-11T12:25:08Z</time>
      </trkpt>
      <trkpt lat="47.23767" lon="-2.30401">
        <ele>12</ele>
        <time>2023-11-11T12:25:35Z</time>
      </trkpt>
      <trkpt lat="47.23777" lon="-2.30428">
        <ele>13</ele>
        <time>2023-11-11T12:26:03Z</time>
      </trkpt>
      <trkpt lat="47.23791" lon="-2.3045">
        <ele>15</ele>
        <time>2023-11-11T12:26:30Z</time>
      </trkpt>
      <trkpt lat="47.23817" lon="-2.30532">
        <ele>19</ele>
        <time>2023-11-11T12:27:52Z</time>
      </trkpt>
      <trkpt lat="47.23828" lon="-2.30586">
        <ele>22</ele>
        <time>2023-11-11T12:28:43Z</time>
      </trkpt>
      <trkpt lat="47.23834" lon="-2.30645">
        <ele>18</ele>
        <time>2023-11-11T12:29:37Z</time>
      </trkpt>
      <trkpt lat="47.23842" lon="-2.30674">
        <ele>15</ele>
        <time>2023-11-11T12:30:05Z</time>
      </trkpt>
      <trkpt lat="47.23855" lon="-2.307">
        <ele>11</ele>
        <time>2023-11-11T12:30:35Z</time>
      </trkpt>
      <trkpt lat="47.23875" lon="-2.30706">
        <ele>11</ele>
        <time>2023-11-11T12:31:02Z</time>
      </trkpt>
      <trkpt lat="47.23894" lon="-2.30706">
        <ele>12</ele>
        <time>2023-11-11T12:31:27Z</time>
      </trkpt>
      <trkpt lat="47.23894" lon="-2.30733">
        <ele>9</ele>
        <time>2023-11-11T12:31:52Z</time>
      </trkpt>
      <trkpt lat="47.23888" lon="-2.30762">
        <ele>6</ele>
        <time>2023-11-11T12:32:19Z</time>
      </trkpt>
      <trkpt lat="47.23891" lon="-2.30792">
        <ele>5</ele>
        <time>2023-11-11T12:32:47Z</time>
      </trkpt>
      <trkpt lat="47.23908" lon="-2.30815">
        <ele>5</ele>
        <time>2023-11-11T12:33:17Z</time>
      </trkpt>
      <trkpt lat="47.23921" lon="-2.30838">
        <ele>4</ele>
        <time>2023-11-11T12:33:45Z</time>
      </trkpt>
      <trkpt lat="47.23951" lon="-2.30874">
        <ele>4</ele>
        <time>2023-11-11T12:34:36Z</time>
      </trkpt>
      <trkpt lat="47.24008" lon="-2.30955">
        <ele>2</ele>
        <time>2023-11-11T12:36:22Z</time>
      </trkpt>
      <trkpt lat="47.24067" lon="-2.31029">
        <ele>3</ele>
        <time>2023-11-11T12:38:05Z</time>
      </trkpt>
      <trkpt lat="47.24108" lon="-2.31097">
        <ele>2</ele>
        <time>2023-11-11T12:39:28Z</time>
      </trkpt>
      <trkpt lat="47.24123" lon="-2.31117">
        <ele>3</ele>
        <time>2023-11-11T12:39:55Z</time>
      </trkpt>
      <trkpt lat="47.24134" lon="-2.31141">
        <ele>3</ele>
        <time>2023-11-11T12:40:21Z</time>
      </trkpt>
      <trkpt lat="47.24207" lon="-2.31273">
        <ele>3</ele>
        <time>2023-11-11T12:42:55Z</time>
      </trkpt>
      <trkpt lat="47.24273" lon="-2.31413">
        <ele>3</ele>
        <time>2023-11-11T12:45:30Z</time>
      </trkpt>
      <trkpt lat="47.24283" lon="-2.31441">
        <ele>3</ele>
        <time>2023-11-11T12:45:58Z</time>
      </trkpt>
      <trkpt lat="47.24309" lon="-2.31489">
        <ele>5</ele>
        <time>2023-11-11T12:46:54Z</time>
      </trkpt>
      <trkpt lat="47.24349" lon="-2.31488">
        <ele>9</ele>
        <time>2023-11-11T12:47:47Z</time>
      </trkpt>
      <trkpt lat="47.24359" lon="-2.31511">
        <ele>10</ele>
        <time>2023-11-11T12:48:12Z</time>
      </trkpt>
      <trkpt lat="47.24366" lon="-2.31538">
        <ele>11</ele>
        <time>2023-11-11T12:48:38Z</time>
      </trkpt>
      <trkpt lat="47.24365" lon="-2.3157">
        <ele>11</ele>
        <time>2023-11-11T12:49:07Z</time>
      </trkpt>
      <trkpt lat="47.24373" lon="-2.316">
        <ele>12</ele>
        <time>2023-11-11T12:49:36Z</time>
      </trkpt>
      <trkpt lat="47.2438" lon="-2.31658">
        <ele>12</ele>
        <time>2023-11-11T12:50:30Z</time>
      </trkpt>
      <trkpt lat="47.244" lon="-2.31661">
        <ele>15</ele>
        <time>2023-11-11T12:50:57Z</time>
      </trkpt>
      <trkpt lat="47.24421" lon="-2.31657">
        <ele>17</ele>
        <time>2023-11-11T12:51:25Z</time>
      </trkpt>
      <trkpt lat="47.2444" lon="-2.31667">
        <ele>18</ele>
        <time>2023-11-11T12:51:52Z</time>
      </trkpt>
      <trkpt lat="47.24463" lon="-2.31718">
        <ele>20</ele>
        <time>2023-11-11T12:52:47Z</time>
      </trkpt>
      <trkpt lat="47.24459" lon="-2.31747">
        <ele>20</ele>
        <time>2023-11-11T12:53:14Z</time>
      </trkpt>
      <trkpt lat="47.2445" lon="-2.31774">
        <ele>19</ele>
        <time>2023-11-11T12:53:41Z</time>
      </trkpt>
      <trkpt lat="47.24417" lon="-2.3185">
        <ele>12</ele>
        <time>2023-11-11T12:55:03Z</time>
      </trkpt>
      <trkpt lat="47.24429" lon="-2.31872">
        <ele>11</ele>
        <time>2023-11-11T12:55:29Z</time>
      </trkpt>
      <trkpt lat="47.24444" lon="-2.31892">
        <ele>10</ele>
        <time>2023-11-11T12:55:56Z</time>
      </trkpt>
      <trkpt lat="47.2447" lon="-2.31968">
        <ele>7</ele>
        <time>2023-11-11T12:57:13Z</time>
      </trkpt>
      <trkpt lat="47.24483" lon="-2.31989">
        <ele>6</ele>
        <time>2023-11-11T12:57:38Z</time>
      </trkpt>
      <trkpt lat="47.24498" lon="-2.32007">
        <ele>6</ele>
        <time>2023-11-11T12:58:04Z</time>
      </trkpt>
      <trkpt lat="47.24516" lon="-2.3202">
        <ele>7</ele>
        <time>2023-11-11T12:58:31Z</time>
      </trkpt>
      <trkpt lat="47.24534" lon="-2.32028">
        <ele>8</ele>
        <time>2023-11-11T12:58:56Z</time>
      </trkpt>
      <trkpt lat="47.24569" lon="-2.32052">
        <ele>10</ele>
        <time>2023-11-11T12:59:48Z</time>
      </trkpt>
      <trkpt lat="47.24585" lon="-2.32066">
        <ele>10</ele>
        <time>2023-11-11T13:00:12Z</time>
      </trkpt>
      <trkpt lat="47.24656" lon="-2.32171">
        <ele>9</ele>
        <time>2023-11-11T13:02:27Z</time>
      </trkpt>
      <trkpt lat="47.24694" lon="-2.32236">
        <ele>8</ele>
        <time>2023-11-11T13:03:44Z</time>
      </trkpt>
      <trkpt lat="47.24742" lon="-2.32332">
        <ele>7</ele>
        <time>2023-11-11T13:05:32Z</time>
      </trkpt>
      <trkpt lat="47.24761" lon="-2.3238">
        <ele>7</ele>
        <time>2023-11-11T13:06:23Z</time>
      </trkpt>
      <trkpt lat="47.24769" lon="-2.32407">
        <ele>7</ele>
        <time>2023-11-11T13:06:49Z</time>
      </trkpt>
      <trkpt lat="47.24782" lon="-2.32432">
        <ele>7</ele>
        <time>2023-11-11T13:07:18Z</time>
      </trkpt>
      <trkpt lat="47.24822" lon="-2.32538">
        <ele>9</ele>
        <time>2023-11-11T13:09:08Z</time>
      </trkpt>
      <trkpt lat="47.24834" lon="-2.32562">
        <ele>9</ele>
        <time>2023-11-11T13:09:35Z</time>
      </trkpt>
      <trkpt lat="47.24852" lon="-2.32617">
        <ele>8</ele>
        <time>2023-11-11T13:10:30Z</time>
      </trkpt>
      <trkpt lat="47.24864" lon="-2.32641">
        <ele>8</ele>
        <time>2023-11-11T13:10:57Z</time>
      </trkpt>
      <trkpt lat="47.24879" lon="-2.32661">
        <ele>9</ele>
        <time>2023-11-11T13:11:24Z</time>
      </trkpt>
      <trkpt lat="47.24893" lon="-2.32719">
        <ele>8</ele>
        <time>2023-11-11T13:12:20Z</time>
      </trkpt>
      <trkpt lat="47.24926" lon="-2.32796">
        <ele>8</ele>
        <time>2023-11-11T13:13:42Z</time>
      </trkpt>
      <trkpt lat="47.24943" lon="-2.32851">
        <ele>8</ele>
        <time>2023-11-11T13:14:37Z</time>
      </trkpt>
      <trkpt lat="47.24962" lon="-2.32903">
        <ele>7</ele>
        <time>2023-11-11T13:15:31Z</time>
      </trkpt>
      <trkpt lat="47.24975" lon="-2.32931">
        <ele>8</ele>
        <time>2023-11-11T13:16:01Z</time>
      </trkpt>
      <trkpt lat="47.24983" lon="-2.32957">
        <ele>8</ele>
        <time>2023-11-11T13:16:27Z</time>
      </trkpt>
      <trkpt lat="47.24985" lon="-2.32989">
        <ele>8</ele>
        <time>2023-11-11T13:16:56Z</time>
      </trkpt>
      <trkpt lat="47.25008" lon="-2.33036">
        <ele>9</ele>
        <time>2023-11-11T13:17:49Z</time>
      </trkpt>
      <trkpt lat="47.25017" lon="-2.33062">
        <ele>8</ele>
        <time>2023-11-11T13:18:15Z</time>
      </trkpt>
      <trkpt lat="47.25059" lon="-2.33158">
        <ele>9</ele>
        <time>2023-11-11T13:19:59Z</time>
      </trkpt>
      <trkpt lat="47.25106" lon="-2.33251">
        <ele>6</ele>
        <time>2023-11-11T13:21:44Z</time>
      </trkpt>
      <trkpt lat="47.2512" lon="-2.33274">
        <ele>6</ele>
        <time>2023-11-11T13:22:12Z</time>
      </trkpt>
      <trkpt lat="47.2513" lon="-2.33299">
        <ele>6</ele>
        <time>2023-11-11T13:22:38Z</time>
      </trkpt>
      <trkpt lat="47.25145" lon="-2.3332">
        <ele>6</ele>
        <time>2023-11-11T13:23:06Z</time>
      </trkpt>
      <trkpt lat="47.25157" lon="-2.33343">
        <ele>7</ele>
        <time>2023-11-11T13:23:32Z</time>
      </trkpt>
      <trkpt lat="47.25199" lon="-2.33437">
        <ele>5</ele>
        <time>2023-11-11T13:25:14Z</time>
      </trkpt>
      <trkpt lat="47.25267" lon="-2.33571">
        <ele>5</ele>
        <time>2023-11-11T13:27:45Z</time>
      </trkpt>
      <trkpt lat="47.25317" lon="-2.33631">
        <ele>6</ele>
        <time>2023-11-11T13:29:11Z</time>
      </trkpt>
      <trkpt lat="47.25331" lon="-2.33651">
        <ele>6</ele>
        <time>2023-11-11T13:29:37Z</time>
      </trkpt>
      <trkpt lat="47.25363" lon="-2.33684">
        <ele>6</ele>
        <time>2023-11-11T13:30:30Z</time>
      </trkpt>
      <trkpt lat="47.25377" lon="-2.33703">
        <ele>5</ele>
        <time>2023-11-11T13:30:55Z</time>
      </trkpt>
      <trkpt lat="47.25476" lon="-2.33894">
        <ele>5</ele>
        <time>2023-11-11T13:34:33Z</time>
      </trkpt>
      <trkpt lat="47.2549" lon="-2.33914">
        <ele>5</ele>
        <time>2023-11-11T13:34:59Z</time>
      </trkpt>
      <trkpt lat="47.25524" lon="-2.33935">
        <ele>6</ele>
        <time>2023-11-11T13:35:48Z</time>
      </trkpt>
      <trkpt lat="47.25539" lon="-2.33952">
        <ele>6</ele>
        <time>2023-11-11T13:36:13Z</time>
      </trkpt>
      <trkpt lat="47.25551" lon="-2.33974">
        <ele>5</ele>
        <time>2023-11-11T13:36:39Z</time>
      </trkpt>
      <trkpt lat="47.25583" lon="-2.34002">
        <ele>6</ele>
        <time>2023-11-11T13:37:28Z</time>
      </trkpt>
      <trkpt lat="47.25599" lon="-2.3402">
        <ele>5</ele>
        <time>2023-11-11T13:37:55Z</time>
      </trkpt>
      <trkpt lat="47.25612" lon="-2.34039">
        <ele>5</ele>
        <time>2023-11-11T13:38:20Z</time>
      </trkpt>
      <trkpt lat="47.25631" lon="-2.34085">
        <ele>4</ele>
        <time>2023-11-11T13:39:08Z</time>
      </trkpt>
      <trkpt lat="47.25636" lon="-2.34112">
        <ele>4</ele>
        <time>2023-11-11T13:39:34Z</time>
      </trkpt>
      <trkpt lat="47.25645" lon="-2.34137">
        <ele>3</ele>
        <time>2023-11-11T13:39:59Z</time>
      </trkpt>
      <trkpt lat="47.25666" lon="-2.34181">
        <ele>2</ele>
        <time>2023-11-11T13:40:48Z</time>
      </trkpt>
      <trkpt lat="47.25685" lon="-2.3419">
        <ele>3</ele>
        <time>2023-11-11T13:41:15Z</time>
      </trkpt>
      <trkpt lat="47.25723" lon="-2.34185">
        <ele>5</ele>
        <time>2023-11-11T13:42:06Z</time>
      </trkpt>
      <trkpt lat="47.25784" lon="-2.34173">
        <ele>6</ele>
        <time>2023-11-11T13:43:28Z</time>
      </trkpt>
      <trkpt lat="47.25797" lon="-2.3415">
        <ele>6</ele>
        <time>2023-11-11T13:43:55Z</time>
      </trkpt>
      <trkpt lat="47.258" lon="-2.34095">
        <ele>5</ele>
        <time>2023-11-11T13:44:45Z</time>
      </trkpt>
      <trkpt lat="47.25822" lon="-2.3401">
        <ele>4</ele>
        <time>2023-11-11T13:46:07Z</time>
      </trkpt>
      <trkpt lat="47.25807" lon="-2.33988">
        <ele>3</ele>
        <time>2023-11-11T13:46:36Z</time>
      </trkpt>
      <trkpt lat="47.25767" lon="-2.33987">
        <ele>3</ele>
        <time>2023-11-11T13:47:29Z</time>
      </trkpt>
      <trkpt lat="47.25762" lon="-2.33932">
        <ele>3</ele>
        <time>2023-11-11T13:48:19Z</time>
      </trkpt>
      <trkpt lat="47.25774" lon="-2.3391">
        <ele>3</ele>
        <time>2023-11-11T13:48:45Z</time>
      </trkpt>
      <trkpt lat="47.25792" lon="-2.33915">
        <ele>3</ele>
        <time>2023-11-11T13:49:09Z</time>
      </trkpt>
      <trkpt lat="47.25812" lon="-2.33913">
        <ele>2</ele>
        <time>2023-11-11T13:49:36Z</time>
      </trkpt>
      <trkpt lat="47.25831" lon="-2.3392">
        <ele>2</ele>
        <time>2023-11-11T13:50:02Z</time>
      </trkpt>
      <trkpt lat="47.25852" lon="-2.33931">
        <ele>3</ele>
        <time>2023-11-11T13:50:32Z</time>
      </trkpt>
      <trkpt lat="47.25886" lon="-2.33958">
        <ele>4</ele>
        <time>2023-11-11T13:51:23Z</time>
      </trkpt>
      <trkpt lat="47.25905" lon="-2.33968">
        <ele>4</ele>
        <time>2023-11-11T13:51:50Z</time>
      </trkpt>
      <trkpt lat="47.25922" lon="-2.33954">
        <ele>4</ele>
        <time>2023-11-11T13:52:16Z</time>
      </trkpt>
      <trkpt lat="47.25933" lon="-2.33929">
        <ele>4</ele>
        <time>2023-11-11T13:52:43Z</time>
      </trkpt>
      <trkpt lat="47.25953" lon="-2.33941">
        <ele>4</ele>
        <time>2023-11-11T13:53:12Z</time>
      </trkpt>
      <trkpt lat="47.25969" lon="-2.33923">
        <ele>4</ele>
        <time>2023-11-11T13:53:39Z</time>
      </trkpt>
      <trkpt lat="47.2599" lon="-2.33924">
        <ele>4</ele>
        <time>2023-11-11T13:54:07Z</time>
      </trkpt>
      <trkpt lat="47.26005" lon="-2.33938">
        <ele>5</ele>
        <time>2023-11-11T13:54:31Z</time>
      </trkpt>
      <trkpt lat="47.26025" lon="-2.3393">
        <ele>4</ele>
        <time>2023-11-11T13:54:58Z</time>
      </trkpt>
      <trkpt lat="47.26046" lon="-2.33928">
        <ele>4</ele>
        <time>2023-11-11T13:55:26Z</time>
      </trkpt>
      <trkpt lat="47.26062" lon="-2.33944">
        <ele>5</ele>
        <time>2023-11-11T13:55:52Z</time>
      </trkpt>
    </trkseg>
  </trk>
</gpx>